GFSNW_sfc_thetae_000.txt.gz
Theta_e
311 311 311 310 309 308 303 294 290 305 310 298 295 291 294 299 298 302 301 303 302 301 302 301 302 301 304 309 308 301 300 295 296 299 305 306 305 301 298 294 292 293 293 296
309 310 310 309 308 308 303 291 293 303 303 292 293 298 301 301 299 298 299 301 304 305 302 299 305 305 311 309 308 304 303 294 294 295 298 301 302 302 301 297 295 293 293 297
309 310 309 308 308 308 305 293 291 297 299 295 295 294 297 299 307 304 305 303 305 303 302 305 303 303 310 311 309 318 310 295 296 295 296 300 299 302 303 299 294 294 296 299
309 309 309 309 308 308 305 295 294 294 290 293 292 292 298 300 301 307 305 302 306 305 298 302 304 310 310 312 314 313 303 295 297 299 304 305 305 304 303 299 299 298 299 301
309 309 309 309 308 308 299 295 294 296 291 292 293 294 295 297 300 303 301 303 308 306 302 307 305 307 303 304 308 304 299 296 299 300 303 305 302 306 306 306 304 303 302 303
309 309 309 309 308 306 297 298 300 295 292 291 291 292 296 297 299 306 309 308 306 305 307 309 309 309 308 308 304 303 299 298 296 294 301 303 300 303 304 305 308 305 299 304
309 308 308 309 309 307 304 300 300 293 290 291 294 295 299 298 300 299 309 308 303 312 311 310 310 307 307 309 307 306 300 297 295 295 295 291 301 309 312 309 310 310 307 309
309 309 309 308 309 309 299 300 300 294 288 294 295 297 296 297 300 301 304 306 308 308 305 301 301 302 303 306 308 308 308 304 299 293 291 296 304 308 309 307 307 313 310 313
308 309 308 308 309 309 301 302 304 298 290 290 297 294 296 292 293 299 303 306 306 307 301 300 295 297 301 302 303 305 308 307 303 299 293 291 299 312 315 311 301 313 314 313
308 308 308 308 308 309 305 301 305 297 293 295 294 292 291 293 293 295 299 298 302 309 299 294 294 295 303 299 297 299 301 302 298 297 295 298 308 314 314 299 301 313 313 312
308 308 308 308 308 308 304 302 305 302 297 298 299 299 294 295 295 293 297 299 302 306 300 297 295 294 298 301 304 303 303 301 299 299 296 293 314 313 308 309 312 314 315 316
307 308 308 308 308 308 307 299 304 305 297 297 302 302 303 302 301 295 292 293 298 303 299 301 301 300 301 299 299 308 303 307 305 305 303 311 314 312 313 314 312 314 314 316
307 307 307 307 308 307 307 301 300 299 295 295 294 297 302 303 303 303 294 296 299 300 301 298 303 300 303 300 302 305 311 315 308 307 311 314 316 315 316 316 315 316 318 319
307 306 307 307 308 307 307 299 301 299 297 289 293 303 299 303 302 302 301 298 299 300 300 295 297 299 304 301 305 306 310 310 310 309 313 313 314 314 314 317 318 317 317 318
306 306 307 307 308 308 305 302 302 303 299 292 292 299 302 302 303 304 304 300 297 297 294 293 293 301 301 300 304 303 308 309 306 305 311 310 311 314 315 311 312 313 312 312
306 306 307 307 308 309 301 299 302 304 300 292 289 299 298 300 302 301 299 301 299 298 293 294 296 300 301 297 296 302 311 313 313 311 314 313 314 313 311 310 310 311 309 309
306 306 307 307 308 300 297 297 303 305 301 295 293 294 299 302 300 301 299 299 299 297 293 293 293 295 299 299 295 299 306 306 308 314 308 303 305 303 309 312 313 312 311 310
306 307 307 308 308 304 296 302 305 303 297 295 291 293 295 299 295 296 301 297 298 297 294 294 294 296 294 294 298 300 303 306 306 306 307 305 306 307 307 309 309 307 307 307
306 307 308 302 298 294 298 312 309 302 298 291 294 290 290 297 296 298 298 300 294 298 293 292 294 293 295 293 299 302 303 303 302 305 305 306 304 304 305 306 306 304 304 304
306 301 298 292 298 312 308 298 295 295 296 294 291 295 291 294 295 294 297 297 295 292 295 297 299 297 302 303 302 303 304 305 305 303 302 303 303 304 305 305 306 305 305 305
296 294 296 303 310 297 294 290 291 293 291 293 293 292 291 299 294 294 297 293 294 290 295 294 296 297 302 306 306 308 308 308 307 306 304 304 303 304 304 305 306 306 305 305
301 300 302 300 296 291 288 286 292 292 289 293 292 293 297 298 299 296 297 293 294 289 297 295 296 303 305 307 308 309 308 309 309 309 308 308 309 308 307 306 306 309 309 308
302 298 294 292 289 279 285 282 287 289 293 293 293 292 294 296 296 296 295 292 290 296 294 296 300 305 308 308 308 308 309 310 311 311 311 311 311 312 310 309 311 311 312 312
295 291 284 286 283 288 288 290 293 297 296 295 296 295 294 296 294 295 291 294 295 291 291 294 299 301 305 305 307 307 307 309 310 310 311 312 312 312 312 313 312 313 311 308
292 292 284 289 293 294 297 298 297 298 297 295 295 295 296 293 293 294 293 292 291 294 295 299 302 302 304 305 307 306 305 307 308 310 310 311 311 310 309 310 309 310 310 307
293 292 290 294 293 294 295 293 295 298 296 296 295 292 292 292 292 291 291 292 292 295 299 301 303 304 304 304 305 307 307 306 307 307 309 309 309 308 307 309 310 310 310 311
293 291 295 296 295 294 294 295 294 298 295 292 293 289 289 294 289 290 295 293 297 298 299 302 302 303 304 305 306 307 307 306 306 307 308 307 309 309 308 305 308 310 310 310

GFSNW_sfc_thetae_003.txt.gz
Theta_e
310 310 310 309 308 307 304 291 284 300 304 295 290 287 291 298 296 299 297 297 297 295 298 296 296 297 300 307 307 298 298 294 294 295 301 303 301 299 298 295 290 289 291 294
309 309 310 309 307 307 302 293 289 301 299 289 290 294 298 300 299 299 296 295 299 302 299 294 298 300 307 310 306 302 298 291 289 291 294 298 298 299 296 294 293 292 292 295
310 309 309 308 308 307 304 293 287 294 295 292 290 290 292 296 305 303 304 300 303 302 298 301 299 302 308 310 306 317 307 291 296 293 294 298 297 300 299 297 293 292 294 297
309 310 309 309 308 307 303 294 290 292 288 291 290 289 293 296 296 301 304 299 302 304 298 301 302 305 308 312 315 310 302 294 293 300 300 300 300 300 300 298 298 297 298 299
309 309 309 309 308 307 299 292 292 295 293 291 290 290 291 294 295 296 299 299 307 306 300 304 302 304 304 307 308 303 297 294 296 295 299 300 299 302 303 303 299 299 299 299
308 309 309 308 308 304 293 295 297 294 294 291 289 290 293 295 297 299 300 307 304 304 306 309 308 308 307 309 305 302 294 297 292 295 297 300 295 300 302 304 305 303 298 302
308 309 309 309 308 305 301 298 299 295 290 292 291 294 295 295 296 295 301 303 304 308 309 309 308 306 305 306 309 306 299 294 292 295 295 291 298 306 308 308 310 309 308 305
308 308 308 308 309 308 298 300 299 296 292 293 294 295 294 295 295 297 301 305 304 304 303 301 300 302 302 303 307 306 303 296 295 292 291 298 303 308 307 306 305 311 308 310
308 308 307 308 309 308 300 295 301 297 294 290 296 293 293 290 289 291 300 305 303 302 299 300 295 297 300 300 303 306 303 302 299 293 291 292 302 309 314 310 301 312 312 311
308 308 308 308 308 309 301 297 303 299 294 296 294 290 290 293 292 288 296 297 298 307 298 294 292 294 302 299 297 297 300 300 298 296 295 298 308 311 314 300 300 312 311 310
307 307 307 308 308 308 302 297 301 299 296 295 298 298 294 294 292 289 294 295 300 300 298 298 298 294 300 302 304 300 299 301 301 300 296 294 312 311 305 307 308 310 312 312
306 307 307 308 308 308 306 297 302 304 297 295 299 301 302 300 299 294 294 292 298 299 297 298 299 299 298 298 299 309 301 306 303 302 299 307 311 310 313 311 311 310 313 313
306 307 307 307 307 307 306 299 297 299 294 294 291 295 300 301 302 301 292 295 298 300 299 298 301 300 300 296 300 304 310 312 304 305 305 309 310 311 312 312 311 313 314 313
306 307 307 307 307 307 306 300 297 300 296 290 291 301 299 303 300 300 299 297 299 300 300 297 299 299 302 299 301 301 308 311 307 305 310 310 308 310 311 311 311 312 313 314
306 306 306 307 307 308 304 299 298 302 297 289 290 298 301 300 299 299 299 298 297 298 295 295 296 300 299 298 303 301 304 309 305 301 310 307 307 309 311 308 309 310 310 309
306 306 306 307 307 307 299 298 301 304 303 294 287 296 298 298 298 297 296 297 297 297 294 295 297 302 302 296 296 303 304 311 312 309 312 310 310 311 312 309 310 309 308 309
306 306 306 307 308 300 295 295 301 303 301 294 292 291 297 299 297 297 295 295 297 295 293 294 293 296 299 296 294 299 304 308 309 311 309 305 308 306 307 308 308 308 307 305
305 306 307 307 307 304 295 300 305 303 296 295 289 289 292 296 292 292 296 294 295 295 294 294 294 295 298 294 297 300 302 305 305 305 307 306 306 305 305 306 305 304 304 304
305 306 306 300 297 293 296 309 307 300 296 291 291 289 288 296 292 294 296 298 292 296 291 293 299 296 292 295 296 299 302 300 301 304 305 305 304 304 305 305 305 303 303 303
306 299 297 291 298 310 306 297 293 293 295 293 289 292 289 292 294 293 296 295 293 290 293 300 300 299 299 300 301 302 303 304 303 301 301 302 301 302 303 303 304 304 304 305
295 294 295 300 306 296 295 292 292 292 290 292 293 291 289 295 293 293 296 292 292 289 293 297 299 298 300 304 304 305 305 306 305 305 304 304 304 304 304 303 304 306 307 307
300 298 300 298 295 290 287 285 290 290 289 292 292 292 292 296 297 295 296 293 292 288 295 297 295 301 305 305 306 306 306 308 308 308 307 308 309 308 306 306 306 307 308 309
301 295 291 290 286 278 284 284 286 287 292 293 293 292 293 295 295 294 294 292 291 297 296 296 298 303 306 306 306 306 307 309 308 309 309 310 310 310 309 309 310 310 309 309
294 289 282 285 283 289 289 291 293 295 296 295 295 294 294 295 293 293 292 293 295 293 291 294 300 302 304 306 307 304 304 306 307 308 309 309 308 308 309 309 308 307 307 306
289 290 285 289 293 294 297 299 296 297 296 295 294 295 294 292 292 294 292 291 291 294 294 299 301 301 302 302 304 303 304 304 304 305 306 307 307 306 305 307 307 307 307 307
291 293 291 293 292 292 294 295 294 298 295 294 294 291 290 291 290 291 292 292 291 294 297 299 300 300 301 302 304 304 305 304 303 303 304 305 304 305 306 306 306 308 308 308
292 292 296 295 293 292 294 295 296 298 295 292 292 289 288 291 288 291 295 294 296 299 299 299 298 299 301 303 304 304 304 304 304 304 304 304 305 303 303 303 304 307 307 307

GFSNW_sfc_thetae_006.txt.gz
Theta_e
311 311 310 309 308 307 302 294 283 296 300 292 287 285 288 295 294 296 295 295 295 293 295 292 294 294 298 304 301 296 296 294 291 293 298 301 301 297 295 293 288 289 290 292
309 311 310 309 308 307 301 290 290 298 296 287 288 291 295 297 297 297 297 295 296 296 294 292 295 297 303 304 301 298 297 290 290 290 292 296 295 296 293 292 291 289 291 293
309 310 309 308 308 307 303 292 284 291 292 289 287 286 289 293 301 300 301 299 299 296 295 296 294 297 305 309 308 321 311 290 293 292 294 296 295 298 297 295 290 291 293 297
309 310 310 309 307 307 303 294 287 290 287 290 290 286 290 293 294 299 300 297 299 298 293 297 295 299 302 308 314 306 295 293 294 299 297 298 298 298 298 296 296 295 298 297
309 309 310 309 307 306 299 294 292 292 290 291 287 288 287 292 295 295 295 296 301 300 297 299 298 301 301 303 308 303 296 292 291 296 298 298 297 299 300 300 299 299 299 299
309 309 309 309 307 302 292 292 294 295 292 290 287 287 290 293 295 297 298 298 298 301 303 303 305 305 306 307 304 304 297 292 289 292 294 294 291 298 298 300 300 301 297 303
309 309 309 309 309 304 300 296 296 293 287 292 292 293 294 293 295 293 296 297 295 304 302 304 301 301 305 304 303 306 303 293 290 293 291 286 297 302 303 303 306 306 306 305
308 309 308 308 309 307 300 299 294 293 288 292 293 294 293 293 293 292 296 299 303 299 299 297 296 298 301 304 308 307 305 294 291 289 288 293 303 306 306 306 304 310 309 312
308 308 308 307 308 308 301 295 297 292 288 288 294 292 294 290 289 290 294 302 299 299 297 296 292 293 297 299 303 306 305 303 296 291 289 290 299 308 313 310 300 310 311 310
307 307 307 307 307 308 303 298 302 297 291 294 295 291 290 293 291 289 292 293 296 303 295 293 292 292 299 297 299 300 301 302 298 295 293 297 307 309 313 300 299 310 311 312
307 307 307 308 307 307 303 297 302 297 293 294 297 297 294 293 292 289 293 293 299 299 295 295 294 293 298 299 302 301 301 300 299 298 296 293 309 310 303 308 309 311 313 312
306 307 307 307 307 307 306 296 298 304 295 294 299 299 301 300 299 294 294 290 293 300 295 296 297 297 298 297 298 307 301 305 300 300 299 307 310 307 310 312 312 312 311 313
306 306 307 307 306 307 305 297 295 295 295 294 293 293 299 302 302 303 291 295 298 299 299 296 298 297 300 295 299 304 309 309 305 304 306 307 307 309 310 311 310 311 313 314
306 306 306 306 306 307 306 299 298 299 295 289 290 299 297 302 300 301 301 298 298 298 299 295 296 296 301 298 302 302 306 309 305 303 307 309 308 310 311 310 310 310 310 312
305 306 306 306 307 307 305 299 300 299 294 289 290 296 298 299 299 299 299 296 295 294 293 295 295 298 298 299 303 302 303 304 302 299 307 306 305 310 314 309 309 310 309 308
305 305 306 306 307 306 296 295 298 300 301 295 287 293 295 299 297 297 295 296 296 296 291 292 298 299 301 299 299 302 306 311 309 304 306 307 308 309 310 306 306 307 307 308
305 306 306 306 307 299 294 294 300 304 301 294 288 288 296 298 296 297 295 295 296 294 291 293 296 296 302 298 295 301 304 308 309 310 310 304 306 304 307 307 307 307 306 307
304 305 306 307 307 303 296 299 305 304 296 294 287 289 291 295 292 292 295 293 293 292 293 293 295 300 302 296 300 302 306 306 306 307 308 306 307 307 307 307 307 306 305 305
304 305 305 298 297 292 297 308 306 298 294 290 292 289 288 295 291 293 295 294 289 292 293 298 300 297 295 299 299 302 303 302 303 306 307 307 306 305 306 305 304 303 305 306
304 297 296 292 297 308 306 296 291 292 292 291 288 292 288 292 293 292 293 292 290 287 292 301 299 299 302 303 304 304 304 304 305 302 302 303 303 304 304 304 304 306 307 308
296 295 295 299 305 296 293 291 291 291 289 291 292 291 289 296 292 292 295 290 289 288 293 297 298 297 301 304 305 305 307 307 305 305 305 305 305 305 305 306 307 307 308 308
300 298 299 297 294 289 287 285 288 289 289 293 292 291 292 294 295 293 294 291 290 287 296 296 295 300 303 304 305 305 306 307 307 308 308 309 309 308 308 308 308 309 310 310
298 294 289 288 286 283 285 285 289 287 293 294 292 289 294 295 294 294 293 291 288 297 296 294 298 303 305 304 304 305 307 308 308 309 310 309 308 309 309 308 308 308 309 309
291 289 285 288 285 290 291 292 292 295 296 295 293 293 293 294 293 293 292 293 296 292 292 292 300 302 304 304 304 303 304 305 306 307 307 307 307 307 307 307 308 307 307 308
290 290 285 288 293 296 296 297 295 297 298 296 295 294 294 292 293 293 294 292 291 294 294 299 302 302 303 303 304 304 304 304 303 304 305 306 306 305 305 307 307 309 308 309
293 293 292 294 292 293 295 295 295 297 295 295 294 291 290 289 291 292 292 292 289 295 299 301 301 301 302 302 303 304 304 304 303 303 304 304 304 304 304 305 306 308 309 309
293 292 296 294 293 292 294 295 294 297 294 291 292 289 288 291 291 291 295 293 296 299 299 299 299 299 300 301 302 303 303 303 303 303 304 304 305 304 303 303 305 309 311 310

GFSNW_sfc_thetae_009.txt.gz
Theta_e
310 310 311 310 308 306 303 297 287 302 306 297 295 292 293 295 298 300 298 301 301 299 299 298 298 298 303 307 307 303 307 304 300 301 306 307 308 306 307 302 301 302 302 303
309 310 310 309 308 307 302 292 293 302 301 291 294 297 296 299 299 300 300 298 301 302 298 296 299 301 306 307 306 307 305 301 297 299 304 306 303 305 307 307 307 305 299 302
309 309 310 309 308 307 303 294 288 296 299 296 294 293 294 295 302 301 303 302 303 303 301 304 301 301 306 308 307 319 313 307 303 298 301 305 301 303 305 305 301 302 303 306
309 309 310 309 308 307 302 295 292 295 293 295 296 294 293 293 293 301 302 303 303 302 299 301 301 304 305 307 313 314 312 304 305 306 308 306 304 302 303 303 305 303 305 306
309 309 310 309 308 305 299 292 293 294 293 294 294 293 292 293 296 297 297 299 301 303 301 302 300 304 305 306 312 313 307 306 302 301 306 305 302 304 304 305 305 306 307 308
309 309 309 309 308 304 297 298 298 293 291 292 291 292 293 294 295 298 300 299 297 298 302 306 308 309 311 312 310 312 313 306 305 301 303 302 299 304 305 306 308 307 304 311
308 308 308 308 308 306 303 298 296 290 286 290 291 294 295 294 295 293 297 298 296 301 306 308 310 306 308 310 312 313 313 310 303 302 301 292 303 309 309 307 308 311 311 314
308 308 308 308 308 307 303 301 297 292 285 290 290 292 294 296 297 294 295 298 301 305 302 302 303 305 306 307 310 311 315 307 301 298 298 303 305 309 306 305 306 312 312 316
308 308 308 308 308 308 305 302 301 295 287 286 291 292 294 291 292 293 295 300 303 305 304 304 299 297 301 303 306 312 312 312 306 303 297 295 307 313 316 315 304 317 318 319
308 308 307 307 307 308 304 304 303 298 289 292 293 290 291 296 294 292 294 295 298 307 305 300 300 299 305 300 302 305 307 306 303 304 301 303 311 313 316 304 309 318 319 320
307 307 307 307 307 307 304 302 303 298 292 293 295 295 292 295 295 290 294 293 299 303 302 303 302 300 305 305 309 306 305 303 301 304 302 299 312 313 310 315 319 320 320 321
307 307 306 306 306 306 306 299 303 304 296 294 299 299 300 300 299 296 296 294 294 299 299 303 303 305 307 306 301 311 303 307 304 306 305 312 313 312 317 322 320 321 323 323
307 306 306 306 306 306 306 301 301 299 294 295 295 294 300 303 302 303 293 296 300 303 304 302 303 302 308 305 307 306 311 314 308 307 309 309 312 313 315 316 316 319 323 321
305 306 306 305 305 306 306 303 303 300 296 289 292 302 299 305 303 302 301 300 302 301 304 302 301 302 308 307 309 310 308 309 308 308 308 310 311 313 314 315 315 315 317 318
305 305 306 306 306 306 307 304 303 303 295 289 290 297 302 303 302 301 302 300 298 297 299 298 298 304 305 308 311 302 305 305 306 305 311 312 311 313 312 310 311 314 314 314
304 305 305 306 306 305 301 295 301 304 303 292 289 299 299 302 301 301 300 300 298 298 299 299 301 304 307 307 302 303 307 311 313 308 312 310 310 310 312 311 311 312 311 313
305 305 305 306 307 304 297 293 298 304 303 294 291 292 300 303 301 300 299 300 300 301 299 297 302 304 309 304 296 303 308 310 311 312 311 307 308 307 310 310 311 311 311 312
304 305 306 306 306 304 299 302 305 304 296 296 289 291 297 302 299 298 302 299 299 300 299 303 303 306 307 297 302 305 307 308 308 309 310 309 311 309 308 309 311 310 310 312
304 305 305 303 301 296 299 308 306 305 298 292 293 291 293 302 298 299 300 300 296 301 304 304 306 302 296 300 302 304 305 305 306 308 309 309 308 308 309 310 311 310 311 311
303 301 298 295 300 307 307 303 297 296 297 296 291 296 293 298 300 299 299 300 298 299 302 308 301 298 305 306 306 307 307 307 307 306 305 307 308 309 310 310 311 312 313 313
301 297 296 302 305 301 299 294 293 295 293 296 296 296 294 302 297 297 300 297 298 297 300 301 298 297 302 307 308 309 310 310 311 311 310 311 312 310 310 311 313 315 316 315
301 301 303 302 298 295 291 291 293 293 292 298 296 297 298 299 300 298 300 297 298 294 305 301 294 300 306 307 307 309 310 312 313 313 311 311 312 312 312 312 313 314 315 316
303 298 294 293 293 287 288 288 291 293 298 299 298 296 299 303 300 299 299 296 296 304 299 294 298 304 306 307 308 308 310 311 311 311 311 312 311 312 312 312 314 315 315 317
295 292 287 289 288 290 292 293 294 298 300 299 297 297 298 301 298 299 296 298 300 295 291 291 300 304 305 308 309 309 308 309 309 309 311 310 310 310 312 313 314 315 315 317
293 290 285 287 293 297 298 300 298 300 301 300 299 299 299 298 298 299 298 295 292 294 293 297 304 306 308 308 309 309 309 310 310 310 310 310 310 311 311 313 315 316 317 318
295 295 293 295 294 295 297 298 297 300 299 302 301 296 294 293 297 295 293 292 289 295 300 304 306 307 308 308 309 309 310 310 310 311 311 311 312 311 312 313 315 316 317 317
296 295 299 297 296 296 297 298 298 301 300 296 298 293 291 297 295 293 297 291 295 301 304 306 307 308 308 309 310 310 310 310 310 310 311 312 312 312 312 312 314 313 314 316

GFSNW_sfc_thetae_012.txt.gz
Theta_e
312 311 311 310 309 307 305 300 293 309 312 300 300 297 300 297 300 302 302 304 303 303 305 304 304 304 307 311 313 310 314 310 303 303 309 311 311 309 311 305 306 308 307 307
311 310 310 309 308 307 304 297 297 308 307 292 295 300 299 301 300 300 300 300 302 304 303 301 304 305 309 309 309 310 313 308 302 303 306 309 306 309 310 311 312 309 304 306
310 310 310 309 308 307 304 298 292 299 304 301 297 297 297 297 302 301 302 302 303 301 301 305 302 304 307 309 309 322 313 309 305 301 305 308 304 305 308 308 306 307 307 311
310 310 310 309 308 308 304 298 294 299 292 297 299 300 299 296 296 302 304 301 302 301 299 301 301 305 307 310 315 313 310 308 310 309 309 309 307 306 306 305 307 305 309 310
309 309 310 309 308 307 301 294 295 298 295 296 294 294 293 295 297 300 299 301 301 303 301 303 302 304 306 305 309 310 313 309 312 308 310 310 307 309 308 307 307 307 308 309
309 309 309 309 307 305 300 301 300 295 292 291 291 292 294 294 298 300 301 301 301 301 305 308 310 311 312 312 309 310 311 310 310 305 309 309 304 309 310 310 309 308 305 311
309 308 308 308 308 306 303 302 300 291 289 291 290 292 294 294 295 294 298 300 298 304 308 308 309 310 311 311 312 315 313 313 311 306 309 299 309 315 314 312 311 311 311 314
309 309 308 308 308 307 303 304 297 292 287 291 291 291 292 295 296 296 296 298 303 306 303 300 301 303 306 307 310 312 315 313 308 304 302 307 310 315 312 310 309 314 313 315
309 309 308 308 308 308 305 304 304 296 290 290 294 292 293 292 293 294 296 302 305 303 299 300 297 296 301 301 306 314 315 316 310 307 301 299 311 315 319 319 308 316 316 315
308 308 308 308 307 308 305 304 307 299 290 296 296 292 292 296 296 295 297 296 298 306 302 298 299 299 306 300 303 307 310 311 306 307 304 307 315 315 320 307 309 322 318 318
308 308 308 308 307 305 305 302 306 299 293 294 298 299 294 293 293 293 297 295 299 300 301 301 301 302 305 304 309 309 308 307 305 307 305 302 315 316 312 319 326 326 326 325
308 308 307 307 306 305 305 299 308 308 297 295 302 303 304 302 300 296 297 296 297 298 299 304 307 306 309 307 301 315 307 311 308 310 310 316 318 314 319 324 326 327 328 329
307 307 306 307 306 306 305 302 304 301 295 294 297 298 304 306 304 305 296 298 299 301 303 300 303 302 311 307 307 311 314 318 313 313 314 315 316 318 319 322 325 328 330 330
305 305 306 306 306 305 306 302 306 302 296 290 296 305 302 307 307 304 304 303 303 302 303 302 301 304 312 311 314 314 313 316 314 313 314 313 314 317 318 319 322 322 324 326
305 305 306 306 305 305 306 308 307 305 296 291 294 301 306 307 305 305 304 302 298 299 298 298 300 307 308 313 313 303 307 310 313 310 313 315 312 312 314 315 316 318 319 318
305 305 306 306 306 305 304 297 302 304 306 295 288 303 303 307 307 304 303 303 301 299 301 300 300 306 308 307 301 304 310 315 316 316 314 312 312 313 314 313 314 316 317 319
305 305 305 306 306 305 299 297 303 304 306 292 290 297 306 306 305 305 304 305 304 301 302 298 298 302 310 302 298 305 310 313 313 313 311 308 311 308 311 312 314 314 316 316
304 305 305 306 306 305 301 305 305 306 298 296 291 294 300 306 302 300 304 301 302 302 302 302 300 308 305 298 303 307 308 311 309 310 311 311 311 313 311 314 313 312 312 315
306 306 305 306 303 300 304 306 308 305 298 291 293 292 293 306 304 304 302 301 296 304 299 304 307 302 297 301 303 305 308 307 307 309 310 310 309 309 311 313 313 314 313 314
306 305 303 298 305 307 308 303 299 298 299 298 294 300 296 302 305 301 301 301 297 297 304 310 299 298 304 307 307 308 307 308 309 305 304 306 308 309 310 311 313 315 315 315
304 299 300 306 309 306 303 297 294 296 294 299 300 301 298 306 301 301 304 300 302 295 302 300 297 295 302 308 309 311 312 311 311 311 312 313 312 311 312 312 315 316 317 317
303 302 305 306 304 301 295 295 298 294 295 302 300 300 302 303 306 303 304 300 302 295 307 302 293 298 305 308 309 311 313 313 313 314 312 312 313 312 313 314 314 317 318 319
308 303 299 298 298 289 290 289 292 294 301 303 303 300 303 306 305 304 305 298 298 308 301 296 298 305 307 308 309 310 314 312 312 311 312 312 312 314 315 314 316 316 317 319
298 294 286 287 290 292 294 295 296 302 303 304 304 303 302 306 303 304 298 303 306 297 294 292 300 305 308 309 310 309 310 311 310 310 311 311 312 312 314 317 318 317 318 321
294 292 285 290 295 298 300 302 302 304 305 304 304 304 303 302 301 302 301 297 293 294 293 298 307 308 310 311 311 311 311 312 311 312 312 312 312 312 313 316 319 320 320 321
301 298 295 298 297 298 299 301 301 306 305 307 304 300 298 298 300 297 295 294 289 295 300 304 308 312 312 312 313 313 313 313 314 314 314 314 314 314 315 316 317 319 321 321
298 298 302 301 300 299 300 301 302 307 305 301 302 297 296 303 297 293 294 290 293 301 305 311 313 311 312 314 314 314 315 315 315 315 315 316 317 316 314 314 316 316 318 319

GFSNW_sfc_thetae_015.txt.gz
Theta_e
313 312 312 311 310 308 306 304 298 311 314 301 302 298 301 301 303 307 304 305 306 306 308 307 308 307 310 315 314 310 313 310 306 308 313 314 311 308 309 307 307 309 309 309
312 312 312 310 309 308 306 300 302 310 307 293 295 300 301 303 302 304 303 302 304 307 306 304 307 309 313 313 313 312 314 308 304 306 309 312 308 310 310 310 312 311 306 308
310 311 311 310 309 309 305 300 295 302 303 303 297 296 297 299 305 303 304 303 305 303 303 307 306 307 311 313 312 323 316 311 307 304 307 310 306 307 309 309 306 308 308 312
310 310 310 310 309 308 304 299 297 300 294 298 297 298 299 296 297 303 304 302 302 301 299 302 303 306 309 311 314 312 312 307 310 310 311 311 308 306 307 306 309 307 310 311
310 310 310 309 308 307 300 297 297 300 297 299 296 295 295 293 295 297 297 298 301 303 300 301 301 305 307 307 310 310 312 307 310 308 310 310 308 310 309 308 308 308 310 310
310 310 309 309 308 305 299 304 303 299 294 295 293 292 294 294 297 298 300 299 299 301 302 306 308 311 310 310 310 310 310 309 307 304 310 310 304 309 310 311 312 310 306 311
310 310 309 309 309 307 305 300 299 294 291 293 293 294 293 293 295 295 297 297 296 303 307 308 310 310 311 311 310 312 309 310 309 305 308 299 311 317 314 311 313 315 314 315
309 309 309 309 309 308 308 305 297 293 291 292 294 294 293 295 297 296 295 297 301 303 303 300 300 302 303 305 308 312 314 310 306 303 303 308 311 314 315 314 314 317 315 318
309 309 309 309 309 308 308 308 304 296 289 292 295 293 294 291 292 295 297 301 304 303 299 296 293 293 299 299 302 310 313 315 310 307 302 300 311 318 321 320 309 318 320 321
309 309 309 309 308 308 309 305 306 298 289 295 297 293 292 296 294 294 296 300 298 301 294 293 293 294 301 296 299 302 304 307 304 305 304 308 317 319 321 308 311 327 327 327
309 309 308 309 308 308 307 306 310 300 293 294 299 300 296 295 296 292 296 298 298 298 296 296 296 296 300 301 306 306 304 305 304 307 303 300 320 320 313 321 327 328 329 329
308 308 308 308 307 307 307 300 307 305 296 296 304 304 305 302 302 298 298 297 296 300 299 302 301 300 306 304 299 311 305 310 307 309 309 322 323 323 325 326 328 329 330 331
308 307 307 307 307 307 306 302 306 302 296 297 299 299 306 308 306 306 296 300 302 301 304 299 301 299 306 304 304 310 311 318 313 316 319 319 321 324 326 328 327 332 334 332
307 306 306 306 307 306 306 302 306 302 297 290 296 306 304 308 308 306 305 301 307 305 302 299 301 299 309 305 307 314 307 313 318 317 319 320 321 322 324 325 327 328 330 329
306 306 306 307 306 304 306 306 306 306 295 290 295 303 308 309 307 306 305 303 302 299 298 297 299 306 306 310 311 301 308 308 311 311 320 320 317 320 322 320 320 322 324 323
306 306 307 306 306 306 304 298 305 306 306 295 291 303 305 309 307 307 306 305 303 303 297 299 302 308 306 304 300 306 311 315 320 317 321 318 317 317 317 315 317 318 319 320
306 306 306 306 307 306 301 298 302 307 307 294 290 295 305 310 309 307 307 307 304 302 298 300 302 303 300 302 298 307 310 316 317 319 317 312 314 312 316 316 317 316 317 319
306 306 307 307 307 306 301 306 306 306 299 296 291 294 302 309 303 302 307 303 303 302 303 302 300 301 305 298 304 307 310 312 312 314 316 316 315 314 316 314 315 315 315 316
308 308 308 307 304 300 308 307 307 307 298 290 289 288 292 307 302 304 304 305 297 305 298 297 299 298 295 301 303 304 306 307 308 311 310 310 309 309 311 313 313 311 315 318
309 308 301 299 306 306 310 305 299 297 298 297 293 301 298 303 303 301 301 301 298 292 297 304 299 296 304 306 307 308 309 308 308 305 305 307 308 310 309 311 314 316 315 316
307 303 302 307 312 308 303 297 295 297 294 300 301 303 301 306 300 299 304 300 300 293 299 299 295 292 302 308 309 311 311 311 311 311 311 310 311 311 312 313 314 316 318 316
304 303 306 307 304 300 295 294 297 297 294 300 302 303 305 305 307 303 302 299 299 293 303 298 290 298 306 308 309 311 313 312 313 312 309 311 313 315 314 315 315 316 319 320
308 304 301 301 301 291 291 290 293 295 302 304 306 303 307 308 307 304 304 297 297 306 299 292 296 302 308 310 310 310 313 313 313 312 314 314 314 314 314 315 318 319 319 320
300 298 290 292 292 296 299 299 300 305 304 305 305 303 304 307 303 304 297 302 302 296 291 293 300 304 306 311 313 311 311 312 312 312 312 312 312 313 316 318 318 318 319 320
300 299 288 295 299 303 302 303 303 306 308 307 304 304 306 303 302 303 302 298 293 293 292 299 305 307 309 310 311 312 312 312 312 312 312 313 313 314 315 317 319 320 321 321
306 301 297 301 299 299 302 303 304 309 309 309 306 303 301 300 300 297 293 292 288 293 299 306 310 308 312 314 314 314 315 314 314 314 313 313 314 314 315 316 316 317 320 321
299 298 303 302 300 300 304 305 306 311 307 303 304 299 297 303 297 295 295 291 294 301 303 308 313 312 314 315 315 316 315 315 316 315 315 316 316 316 315 314 315 316 317 318

GFSNW_sfc_thetae_018.txt.gz
Theta_e
312 312 312 311 311 308 306 303 296 312 314 300 301 297 300 301 303 306 304 304 303 302 303 305 307 307 310 315 314 309 312 308 305 307 314 314 311 307 307 302 303 306 306 309
312 312 311 311 309 309 305 299 299 308 307 293 295 299 299 300 301 303 303 302 304 305 302 301 305 308 314 315 313 311 314 307 303 304 309 313 309 309 309 308 308 305 303 307
312 311 311 310 309 309 305 298 293 300 303 302 297 296 297 296 302 302 303 303 305 303 302 305 303 305 310 314 314 322 316 309 306 302 306 310 307 308 309 307 302 304 307 311
311 311 310 310 309 309 305 298 295 298 292 295 296 296 297 295 296 302 303 301 302 300 298 300 300 304 306 311 316 314 312 307 309 308 309 311 310 308 308 307 308 305 308 310
310 311 311 310 309 308 301 294 294 299 296 297 295 293 293 292 295 297 294 296 299 300 298 299 295 300 304 307 311 310 311 307 309 307 310 309 308 310 309 308 308 308 309 309
310 310 310 310 309 306 301 302 305 298 295 293 292 292 292 293 295 297 300 297 296 296 297 301 302 303 305 307 308 311 310 307 307 302 308 308 304 309 310 309 310 308 305 312
309 310 310 310 309 307 308 303 301 292 288 291 292 293 294 294 295 292 297 298 295 299 303 304 305 306 306 307 308 309 311 308 307 304 306 297 309 315 313 311 312 313 313 315
309 310 310 309 310 309 309 309 299 293 288 292 293 293 294 294 297 294 295 299 301 302 300 296 294 298 301 304 307 308 311 309 305 302 301 305 308 312 312 310 311 316 315 319
309 309 309 310 310 309 308 309 309 295 288 290 295 293 295 291 293 294 296 303 306 301 296 292 289 288 297 298 302 310 308 314 307 305 300 298 310 315 321 319 308 321 323 322
309 310 310 310 309 309 308 307 309 299 289 294 296 293 293 296 295 291 295 299 300 302 293 288 288 290 298 295 299 302 304 306 303 303 301 304 317 319 321 307 311 325 326 326
309 309 309 309 309 309 308 306 310 302 294 295 299 299 295 295 295 290 295 293 298 297 291 290 291 292 297 298 302 304 302 301 302 306 302 300 321 318 310 322 327 325 327 327
308 309 308 308 308 308 307 302 310 310 298 295 301 302 304 303 301 297 297 294 295 298 297 298 298 294 298 300 295 306 300 306 303 307 307 326 325 325 327 328 328 331 332 331
308 307 307 307 307 308 307 305 308 302 294 296 298 299 305 307 305 305 295 297 300 299 305 300 300 297 304 299 301 306 310 314 309 310 318 321 324 326 329 330 331 332 334 336
308 308 307 307 308 306 306 304 306 301 296 290 295 305 303 309 307 306 305 302 303 304 304 297 299 299 306 300 301 301 310 311 313 316 321 321 323 325 327 328 329 328 330 329
307 307 307 307 307 306 306 306 305 307 296 290 294 301 306 308 307 305 306 303 300 298 296 298 297 305 303 304 304 300 306 309 310 313 314 318 321 323 324 322 323 325 324 323
307 307 307 306 306 308 304 297 306 309 304 294 289 303 304 308 307 304 304 303 302 300 300 298 300 306 303 299 298 306 311 314 319 314 314 316 316 318 318 318 318 319 320 321
309 308 307 307 307 305 301 296 302 306 308 295 290 294 305 310 306 305 304 304 302 306 300 297 300 302 303 302 298 306 310 314 314 315 315 311 314 313 317 317 319 319 319 319
309 309 309 309 308 306 300 306 306 306 299 296 289 293 301 308 303 299 306 302 303 301 300 302 300 302 303 299 305 308 309 312 313 314 315 314 315 317 316 314 316 317 317 318
309 309 310 308 304 301 308 309 306 307 299 291 292 289 291 305 304 304 303 304 298 304 299 298 299 298 296 301 303 305 308 308 308 311 312 311 311 311 312 316 316 312 314 315
309 309 305 299 310 310 310 305 298 296 297 295 291 297 294 302 303 301 299 301 299 293 295 301 296 295 303 305 307 308 308 309 311 308 307 308 309 308 308 308 313 315 316 313
308 304 302 307 313 307 301 296 295 296 292 297 300 304 300 307 300 300 304 299 298 288 295 296 291 292 300 307 307 308 310 311 311 311 311 312 311 311 308 308 311 312 316 317
305 304 308 309 305 302 295 294 296 293 290 301 300 304 305 305 307 301 304 298 299 289 302 295 289 297 305 307 308 310 312 311 309 310 311 314 314 314 314 315 315 316 318 319
310 306 303 301 302 293 292 288 293 295 302 304 305 303 305 307 306 301 301 295 295 301 295 292 294 301 306 308 310 311 313 313 313 312 313 313 314 316 315 315 316 319 319 321
303 299 292 298 295 297 297 299 300 305 305 303 306 302 303 306 302 303 294 299 302 294 290 293 301 304 307 309 312 310 309 312 312 313 313 312 313 315 317 317 319 319 319 321
303 302 293 298 302 304 304 305 305 307 308 307 305 301 303 303 301 302 299 296 290 289 292 298 304 307 312 311 310 311 311 311 313 312 312 312 313 314 316 317 318 321 321 321
306 304 299 301 300 300 302 304 304 310 308 309 307 302 299 298 299 295 292 291 287 291 299 305 307 310 312 315 314 314 313 313 314 313 314 316 316 315 316 317 317 317 321 321
300 299 303 302 302 302 303 306 307 311 307 303 302 298 297 302 295 291 292 289 295 299 305 308 310 312 315 315 316 314 316 317 316 315 318 314 319 319 317 317 320 320 320 320

GFSNW_sfc_thetae_021.txt.gz
Theta_e
313 312 312 311 310 308 305 299 291 305 307 294 297 293 296 299 299 302 300 301 299 297 298 296 296 297 301 311 311 305 306 301 297 300 307 310 306 301 298 295 290 294 295 297
312 312 311 311 309 309 302 294 295 304 303 288 291 295 296 298 296 296 297 296 298 301 298 294 298 300 305 307 305 307 307 301 294 297 302 306 304 305 302 301 295 293 292 297
312 311 311 310 309 309 303 296 289 295 299 298 293 292 292 292 299 298 299 297 299 297 297 299 297 298 304 306 306 320 313 304 299 295 298 301 301 304 305 301 296 296 297 298
311 311 311 310 309 308 303 297 291 294 288 292 292 293 292 290 290 296 296 295 295 294 291 294 295 298 298 302 307 307 301 300 302 303 304 305 304 305 305 301 301 297 298 299
310 310 310 310 309 308 300 293 292 294 291 292 291 291 290 289 291 293 292 291 295 294 293 294 290 293 294 294 300 297 299 299 302 301 305 304 302 306 307 305 304 303 303 302
310 310 310 310 309 306 299 300 302 295 290 289 289 289 290 291 293 295 296 294 293 292 295 298 298 298 298 297 296 296 296 295 297 294 302 302 298 303 305 306 307 305 300 304
310 310 310 310 310 307 303 302 300 292 285 288 288 290 291 291 292 291 295 296 293 296 301 301 299 300 300 301 301 302 297 296 299 295 298 292 301 309 310 308 309 308 306 307
310 310 310 310 309 309 303 303 299 293 286 289 289 290 291 293 293 292 293 296 298 301 298 293 290 293 295 298 301 301 303 298 296 293 295 298 303 306 306 305 305 311 312 313
309 310 310 309 309 310 307 305 305 296 287 287 293 290 291 289 290 291 294 298 302 301 295 292 286 287 291 293 296 302 302 302 299 294 292 291 299 309 313 315 303 319 320 319
310 310 309 310 310 310 307 304 307 298 289 292 293 290 290 294 292 290 293 294 293 299 293 288 286 286 294 290 293 296 297 301 298 296 293 297 306 310 317 302 304 320 321 320
309 309 309 309 309 309 308 303 308 300 293 294 296 296 293 294 293 288 294 292 292 292 288 288 289 287 291 294 298 298 298 293 296 298 294 292 316 314 308 311 319 323 321 321
309 309 308 308 308 308 308 300 308 307 297 295 300 300 301 299 298 295 295 293 293 295 292 294 294 291 294 296 293 302 296 301 300 303 306 315 321 320 321 327 326 327 329 330
309 308 308 308 308 308 307 304 305 303 295 293 295 295 301 303 302 303 292 295 298 297 301 296 296 292 299 292 297 301 304 310 305 306 311 315 319 321 327 326 325 325 328 329
308 308 308 308 308 308 306 302 306 301 296 288 291 302 299 304 304 303 301 299 299 301 298 294 295 294 302 298 299 300 304 307 306 307 313 314 321 324 324 324 324 323 323 323
309 309 308 308 307 308 306 305 304 304 295 289 290 297 302 304 303 302 303 300 299 297 292 295 295 300 300 302 302 301 306 306 304 305 309 310 312 319 322 320 320 320 318 318
310 309 309 309 308 308 303 296 305 307 303 293 287 298 299 304 306 305 302 301 300 298 298 297 299 304 300 296 296 304 307 310 313 312 313 311 312 312 315 314 315 318 318 317
310 310 310 310 309 305 299 296 302 306 305 294 289 290 301 306 307 301 301 301 299 302 300 297 297 299 303 299 295 305 310 314 314 315 314 310 312 309 312 316 317 317 318 318
309 309 309 310 309 307 301 303 305 305 300 296 288 289 297 306 301 298 304 299 302 301 299 299 298 300 301 297 303 307 309 313 313 313 314 314 315 315 314 314 313 312 312 314
309 309 309 308 304 300 303 310 307 306 299 291 291 287 289 304 300 303 302 302 296 302 298 297 297 297 295 300 304 305 308 308 308 310 310 310 308 309 311 313 314 312 310 313
309 308 305 300 305 312 309 304 297 296 296 294 288 293 288 299 300 299 299 301 297 291 294 300 294 295 302 305 307 307 308 310 311 307 306 307 305 306 307 307 311 314 312 312
309 304 301 306 312 306 300 294 292 293 291 293 293 296 291 304 296 297 301 297 295 286 292 294 290 292 299 306 305 308 310 310 310 311 311 311 307 307 308 308 312 315 315 316
304 302 306 307 306 303 296 293 292 289 288 298 298 301 303 304 306 298 300 295 295 290 301 293 288 296 303 305 305 306 308 309 309 311 310 312 313 313 313 314 315 315 318 318
312 305 303 302 301 292 292 290 292 292 299 301 302 300 303 304 302 299 299 294 294 302 294 288 292 299 302 306 308 308 310 311 311 312 313 313 314 316 316 315 316 317 317 318
304 301 290 297 295 296 296 297 298 302 303 304 305 302 302 303 300 299 296 299 298 291 287 288 299 304 307 308 310 309 309 311 311 312 313 313 314 315 316 317 317 317 316 318
304 302 289 297 301 303 303 305 304 306 307 308 306 305 304 302 300 300 297 292 288 290 291 297 303 306 308 308 310 310 310 309 309 311 312 312 313 314 314 316 316 318 318 318
307 304 299 302 301 301 303 304 303 307 307 307 305 302 298 296 296 292 290 289 286 291 299 303 306 307 308 309 310 311 312 312 310 310 311 315 314 313 312 314 315 317 318 317
302 300 306 305 303 302 305 306 305 309 305 298 301 296 295 299 292 290 293 290 295 299 302 306 307 308 310 311 311 313 313 312 310 313 312 312 311 311 314 310 313 312 315 317

GFSNW_sfc_thetae_024.txt.gz
Theta_e
312 312 312 311 310 308 302 292 285 298 302 286 287 289 291 296 296 299 296 296 294 292 293 291 293 294 298 304 303 297 300 297 294 297 302 306 305 300 295 293 288 291 295 295
312 312 311 310 309 308 297 289 288 298 295 282 283 289 292 294 294 294 294 293 294 295 292 289 294 296 303 301 301 297 301 293 291 291 295 299 298 302 301 291 290 293 289 292
312 312 311 309 309 308 297 289 284 287 290 290 288 287 289 289 296 295 295 293 296 293 291 292 291 294 299 300 300 308 300 295 294 293 296 297 295 301 301 299 295 294 295 294
311 311 310 310 309 308 300 291 285 288 282 286 289 289 289 288 288 293 294 290 293 291 287 290 291 295 295 298 302 298 294 287 292 296 300 302 301 300 302 298 300 296 299 294
311 311 311 310 309 308 299 291 290 289 289 287 286 288 288 288 289 290 289 289 291 290 287 289 288 292 289 290 295 293 293 288 292 294 301 302 300 302 303 302 302 300 297 295
311 311 311 310 309 305 296 299 299 294 289 285 282 283 286 287 290 293 294 293 291 289 290 294 294 294 295 293 291 291 290 289 289 287 297 300 296 301 301 302 303 302 297 300
310 311 310 310 310 306 300 299 298 288 286 287 286 287 289 289 291 289 292 292 289 293 299 298 295 295 293 294 294 296 292 291 289 288 292 289 299 306 306 302 304 304 303 304
311 310 310 310 310 309 302 302 297 292 285 288 288 288 289 290 290 288 291 293 293 296 294 288 285 287 289 293 295 296 298 294 290 287 289 295 301 303 303 300 301 307 304 305
310 310 310 310 311 310 303 300 300 297 289 285 291 288 289 285 284 287 291 295 296 294 290 288 281 281 287 290 295 300 299 298 294 292 289 288 297 305 310 308 298 316 315 314
310 310 310 309 309 309 300 298 300 296 288 292 291 287 286 288 286 284 288 291 290 293 287 288 282 282 290 287 290 293 297 296 292 292 293 294 301 306 313 300 300 316 317 316
310 309 309 309 309 308 301 297 302 297 293 292 295 294 291 291 288 286 288 290 289 287 286 287 285 284 286 288 295 296 295 295 294 295 293 290 310 312 302 307 317 318 320 316
309 309 309 309 309 308 307 297 301 302 296 292 298 298 299 297 295 291 289 290 291 293 287 287 290 288 289 288 288 301 294 299 298 299 300 307 315 316 323 325 323 323 325 326
309 309 309 309 309 308 307 298 299 301 295 294 292 291 297 299 298 300 290 292 295 294 298 290 290 286 295 289 293 298 303 308 302 303 308 309 310 313 321 322 320 322 323 323
309 309 309 309 309 308 307 297 301 300 295 287 289 297 294 299 297 298 298 296 298 297 297 289 287 287 297 294 296 298 302 306 304 304 308 311 310 311 316 319 319 318 318 318
310 309 310 310 310 309 304 300 300 303 295 288 290 295 297 298 300 298 298 297 295 292 290 290 290 296 296 300 299 300 304 303 301 302 309 305 308 312 319 315 315 315 315 315
309 310 309 310 310 309 297 294 303 305 302 293 287 292 294 298 302 300 297 297 295 295 292 293 296 301 298 293 295 302 306 308 309 309 312 310 313 313 313 313 314 316 315 314
309 310 310 310 309 305 296 294 300 306 302 292 288 288 294 302 301 299 296 298 295 296 296 295 297 298 300 297 293 302 308 313 313 315 314 310 312 310 313 313 314 316 317 318
310 309 310 310 309 308 301 304 306 305 298 296 288 288 292 304 298 297 301 295 300 299 297 298 297 299 300 294 300 305 310 311 312 313 314 313 314 313 313 314 313 312 313 315
310 310 310 306 303 299 301 309 307 305 298 290 290 287 287 301 300 301 301 301 294 301 296 297 297 296 294 300 303 305 307 307 307 309 309 310 309 309 311 312 312 310 310 310
310 305 300 296 301 311 309 303 297 295 296 294 286 292 289 295 299 297 297 300 295 291 294 298 293 294 301 304 306 308 308 309 310 305 304 306 306 306 307 309 312 314 314 312
300 296 295 301 311 304 300 293 288 290 287 289 288 291 290 301 295 293 300 294 293 286 292 292 290 292 299 304 305 308 310 310 310 310 310 308 307 308 309 311 313 315 315 315
300 301 303 300 299 298 296 292 289 286 287 295 295 296 296 300 304 296 297 290 291 289 300 291 287 295 301 303 304 306 308 309 310 311 311 313 314 312 313 314 314 315 317 318
303 299 299 296 294 290 291 288 290 293 298 300 301 300 301 302 300 297 297 293 293 301 290 286 291 299 302 305 307 308 309 310 311 311 313 314 315 315 314 313 314 315 316 317
298 295 289 292 292 294 295 297 298 302 302 303 303 301 301 302 299 300 295 295 296 290 287 290 300 304 305 307 309 309 309 311 311 312 313 313 312 313 314 314 315 315 314 316
297 295 286 292 297 300 302 304 303 304 304 303 302 301 299 297 296 296 295 291 287 287 288 297 303 305 306 306 308 308 307 307 307 309 310 310 311 311 313 315 315 317 315 313
301 299 297 300 298 299 302 303 302 306 304 302 300 297 296 295 294 292 289 289 287 293 299 302 305 305 306 307 309 308 308 307 308 307 306 307 307 305 306 309 310 313 312 311
299 296 302 299 300 299 301 302 302 306 303 298 297 295 294 298 294 293 294 292 296 300 302 304 304 305 307 308 307 309 307 307 303 303 302 301 302 302 301 301 305 307 310 307

GFSNW_sfc_thetae_027.txt.gz
Theta_e
312 312 311 310 309 307 300 289 283 296 297 285 283 283 288 295 294 296 294 294 292 290 292 290 289 290 295 301 301 294 296 288 292 296 299 304 302 299 293 289 287 289 292 291
311 312 311 310 308 307 295 286 285 296 293 282 283 288 291 294 292 291 292 291 292 294 290 287 293 295 300 300 297 296 297 289 285 288 291 295 295 299 300 296 290 293 289 290
312 312 311 310 308 308 298 290 283 287 288 288 287 284 287 288 294 293 293 292 294 291 289 291 290 293 298 299 299 306 296 288 287 287 289 294 292 297 299 297 293 294 294 293
312 312 311 310 309 308 298 294 285 285 282 284 285 286 287 287 287 293 292 289 290 289 284 288 288 292 293 295 300 295 291 285 288 291 295 296 297 296 299 295 298 295 297 293
311 311 311 310 309 307 298 291 290 292 288 290 284 285 286 287 287 288 289 288 289 288 285 286 285 288 288 289 293 290 290 287 289 289 296 297 296 298 299 300 300 298 298 294
311 311 311 310 309 304 296 298 297 293 289 288 285 284 284 285 289 291 293 290 288 287 289 292 292 292 291 291 289 287 288 287 286 284 292 293 291 297 299 300 301 300 296 299
310 310 311 311 309 305 300 300 297 289 284 287 286 287 288 287 288 287 291 291 289 292 296 296 293 291 291 292 291 293 287 287 287 284 288 285 296 302 304 301 302 301 299 301
310 310 310 311 310 308 297 301 298 292 286 288 287 288 288 288 288 287 287 291 293 294 291 286 283 284 285 288 292 291 293 290 286 284 284 291 298 301 300 298 297 303 303 303
310 310 310 310 310 309 299 297 300 296 288 287 290 286 287 284 286 287 289 292 293 291 286 285 279 279 284 283 290 293 292 293 291 287 284 285 293 306 311 306 297 305 305 304
309 309 310 310 310 309 300 296 298 297 290 290 290 287 284 288 286 284 285 288 289 291 284 283 281 280 288 283 284 286 288 289 287 288 288 292 303 311 315 295 298 313 310 307
309 309 310 309 309 309 302 298 300 297 292 292 294 294 291 290 289 285 286 286 286 284 284 284 285 282 286 284 289 288 290 291 289 290 289 286 310 310 305 309 316 315 314 313
310 310 310 309 309 309 307 296 303 303 296 293 296 297 297 295 294 290 290 286 287 288 285 286 286 286 288 284 283 293 288 295 293 295 295 305 309 312 313 314 316 319 319 323
310 309 310 310 310 309 307 301 298 298 294 294 293 291 297 298 298 299 290 291 292 290 296 291 290 286 290 286 287 290 295 301 297 301 305 309 313 314 315 317 315 316 320 323
311 310 310 310 310 310 309 299 297 298 295 287 288 296 292 297 296 297 297 295 294 298 297 291 288 287 293 288 291 292 297 300 298 301 307 310 313 312 315 316 316 317 317 317
311 311 311 310 310 310 308 301 301 301 294 288 289 295 296 297 296 295 295 294 293 292 291 290 288 292 291 291 291 293 301 299 298 298 307 306 308 312 315 314 314 315 315 314
310 311 311 310 310 310 300 292 299 302 301 292 287 291 293 296 297 298 294 294 292 292 291 291 294 297 293 289 286 295 303 307 307 306 310 311 312 313 314 314 316 317 316 317
310 310 311 310 310 306 296 294 300 305 303 292 288 289 294 298 299 298 296 295 291 292 292 292 292 293 295 288 290 298 302 308 310 312 312 309 311 310 313 314 316 317 317 315
310 310 310 310 309 308 302 305 306 305 298 295 287 287 291 303 297 295 301 292 295 294 295 296 294 297 297 290 297 305 307 310 313 313 314 312 313 313 311 313 314 312 313 315
310 310 310 306 303 299 300 309 307 305 297 288 289 286 287 298 297 299 299 300 293 298 294 296 296 292 287 296 302 304 307 308 308 310 310 310 309 308 310 311 310 309 309 312
309 303 298 295 299 309 310 302 296 295 296 292 285 291 288 295 298 297 296 299 294 290 294 298 291 293 300 303 305 307 308 308 309 305 304 306 305 305 309 310 313 312 311 311
299 295 293 299 310 304 300 292 287 288 285 286 287 288 289 299 292 293 298 292 292 285 291 292 290 289 298 304 305 308 309 309 309 309 309 308 307 307 308 309 311 313 314 314
300 301 304 300 296 297 295 292 290 287 287 293 291 293 294 297 302 295 295 289 290 287 298 291 286 291 300 304 306 308 309 310 311 312 312 313 314 313 313 312 312 314 315 316
301 297 297 293 293 292 291 287 294 294 299 300 300 299 300 300 300 296 296 292 291 298 288 285 292 299 304 306 308 308 311 312 312 312 313 314 315 316 315 314 315 316 316 317
297 293 290 294 292 295 296 297 298 301 302 301 301 299 300 301 297 298 293 295 295 288 285 289 299 302 305 307 308 308 307 309 311 311 311 312 313 314 314 314 314 314 313 315
296 298 288 293 298 299 301 301 302 303 304 301 300 299 298 295 294 295 294 291 286 288 290 297 302 304 306 306 306 304 302 301 301 302 301 303 304 307 309 310 309 312 312 312
300 299 296 298 297 297 298 298 298 303 303 301 299 297 294 294 295 293 290 287 287 294 298 302 304 305 306 304 304 301 300 299 298 299 300 300 301 302 304 305 306 305 305 305
300 298 299 296 297 295 297 298 298 302 301 296 297 294 293 296 292 291 295 293 297 300 302 303 304 305 305 304 303 301 298 297 298 298 299 299 300 300 300 299 301 302 304 305

GFSNW_sfc_thetae_030.txt.gz
Theta_e
312 312 312 311 309 307 298 287 282 294 295 284 283 282 286 292 292 293 292 292 290 289 290 288 289 290 294 299 299 294 295 286 289 291 296 302 302 297 291 289 286 285 286 291
313 312 311 310 308 307 294 285 285 294 292 279 280 286 288 291 291 290 290 289 293 293 289 285 291 293 299 298 297 295 295 287 284 287 293 294 293 298 294 296 289 290 288 291
313 312 311 310 309 308 295 287 282 286 289 285 282 282 283 286 294 292 292 290 292 290 288 290 288 291 297 297 299 304 296 286 285 285 288 292 290 295 296 296 293 293 293 293
313 312 311 310 309 308 295 288 284 289 280 282 287 282 284 286 285 291 293 291 289 287 282 286 286 290 291 294 298 293 291 286 287 289 293 294 294 294 296 293 297 294 297 297
311 312 312 311 309 306 293 286 289 291 288 289 287 285 281 284 285 286 287 288 288 288 283 285 283 286 286 287 291 288 288 285 287 288 294 294 292 295 297 297 296 295 298 296
311 311 311 310 309 303 296 298 298 292 289 285 285 283 284 285 287 289 292 290 288 286 289 290 290 290 289 290 287 286 285 286 285 283 290 291 289 294 296 296 297 297 294 298
310 311 311 311 309 304 296 296 297 290 284 287 286 288 287 286 287 286 289 290 287 291 294 293 290 288 289 290 290 290 285 285 285 283 286 281 291 298 300 298 300 299 299 301
310 310 310 311 310 309 298 296 296 291 284 287 287 287 286 287 287 285 287 289 291 292 291 285 282 281 282 286 289 289 290 286 283 282 283 289 293 301 303 301 299 302 301 302
310 310 310 310 310 309 298 296 298 296 288 286 289 286 287 284 283 285 287 291 290 290 285 282 277 276 281 282 286 289 289 290 286 283 282 282 292 307 312 311 297 307 307 304
310 310 311 310 310 309 299 298 298 295 289 292 291 287 286 289 288 286 285 286 287 288 285 283 280 278 285 280 282 281 282 285 282 284 284 289 298 308 314 295 297 312 313 314
310 310 310 311 311 310 304 300 298 297 292 293 294 295 291 291 289 284 286 284 285 285 282 282 281 283 284 282 284 284 283 283 282 284 284 282 306 307 304 306 312 315 315 317
311 311 311 311 311 310 309 298 300 302 295 293 297 296 297 296 294 290 290 289 285 290 285 286 286 284 286 283 280 289 284 289 288 288 287 298 308 309 312 313 314 315 315 317
311 311 311 312 311 311 309 301 301 299 294 290 289 290 296 298 298 299 289 291 292 291 291 286 287 285 288 280 283 288 291 294 292 294 298 303 308 312 313 316 315 316 317 318
311 311 311 312 312 311 310 302 302 299 294 286 287 295 292 295 296 296 296 295 294 295 296 290 288 286 291 286 288 287 290 291 291 293 299 306 310 310 311 315 317 316 317 316
311 311 311 311 312 311 309 305 302 302 293 286 289 294 295 295 293 294 295 294 292 290 290 290 289 292 290 291 290 287 291 289 288 289 299 304 306 310 313 315 315 317 316 317
310 311 311 311 311 310 302 294 300 303 301 292 287 291 294 298 296 293 292 292 292 292 290 290 293 297 290 286 286 293 296 298 300 298 306 308 311 313 315 315 315 316 317 318
310 310 310 310 310 306 298 294 301 304 302 292 287 289 293 296 294 296 293 294 292 292 291 290 290 291 293 286 284 292 296 297 300 307 309 309 311 310 313 314 317 319 319 318
310 309 310 310 310 307 302 304 306 305 297 294 287 288 289 296 293 292 295 290 292 294 292 295 293 294 292 284 290 294 297 296 300 307 312 312 313 312 312 314 314 314 315 317
310 310 310 305 304 300 301 309 308 305 296 287 288 286 285 295 294 296 297 299 293 298 293 295 294 290 285 291 297 301 302 298 299 311 311 311 310 311 311 312 311 310 311 313
309 301 296 295 300 310 308 302 295 294 294 291 285 290 288 293 297 297 296 298 293 289 293 297 291 289 297 301 304 305 308 310 309 306 306 308 308 309 310 311 313 312 312 314
298 294 292 300 307 305 300 291 288 286 285 286 287 289 289 298 291 293 297 291 290 285 290 291 288 288 296 304 306 309 310 310 309 310 311 309 310 309 311 311 313 314 314 313
301 302 305 302 298 298 295 292 290 288 288 291 290 292 291 295 301 294 295 287 289 286 296 289 285 296 302 305 306 309 311 312 312 313 313 313 314 313 313 312 313 314 315 316
302 297 295 297 296 291 291 288 292 295 300 299 299 298 299 299 300 296 296 293 291 298 288 285 294 301 303 302 303 303 304 305 310 313 313 312 311 312 312 313 315 317 316 317
296 295 288 293 293 294 295 294 295 300 301 300 299 299 298 300 295 296 293 295 294 288 285 289 296 299 300 300 300 300 300 301 303 305 308 308 306 305 306 310 312 314 313 314
296 296 288 292 298 299 299 300 299 300 302 299 298 296 296 295 295 296 293 290 285 287 290 295 300 302 301 299 299 298 298 299 298 301 302 306 306 304 303 305 307 307 306 305
300 298 294 297 294 295 296 295 294 299 300 301 300 296 293 293 295 293 291 287 286 293 298 301 303 303 301 299 298 297 298 298 298 299 299 299 300 301 302 303 303 303 302 300
299 295 296 294 293 293 294 296 295 297 298 295 296 291 292 296 291 289 292 290 293 297 297 297 299 298 297 298 296 296 296 295 296 296 297 298 300 300 300 299 300 300 300 300

GFSNW_sfc_thetae_033.txt.gz
Theta_e
313 313 312 311 309 307 302 295 289 301 301 290 290 286 288 292 293 296 294 294 294 293 294 292 293 294 297 299 302 299 301 299 298 300 307 308 305 303 303 297 296 298 298 298
313 313 312 310 308 306 302 293 291 301 300 284 286 289 288 291 292 293 292 291 294 295 293 290 294 296 299 300 301 299 301 297 296 298 302 304 303 305 305 304 304 299 295 298
312 312 311 310 309 308 302 295 288 293 294 292 287 285 286 287 293 292 293 293 294 292 292 295 292 293 297 298 300 303 301 297 297 296 299 299 298 301 304 303 299 299 299 302
312 312 311 310 309 307 303 296 290 292 285 288 288 288 287 286 286 290 293 289 289 288 287 290 290 292 294 296 299 298 299 293 295 296 296 297 297 298 299 300 303 300 302 303
310 311 311 311 309 305 301 293 292 293 288 291 289 288 286 286 287 287 287 288 290 289 288 289 287 290 292 291 296 295 297 292 294 292 295 297 296 298 299 300 300 301 303 303
311 311 311 311 308 305 300 302 301 293 289 288 287 287 287 287 289 290 292 289 288 287 290 292 294 294 294 294 292 291 292 292 291 288 294 295 292 297 299 301 303 302 299 305
310 311 311 311 310 306 304 301 299 291 285 287 287 287 288 288 289 287 291 291 289 292 297 296 296 294 294 294 293 295 291 292 293 288 291 285 298 303 303 303 304 305 305 307
311 311 311 311 311 309 304 304 298 292 286 289 289 289 288 290 291 289 289 292 295 296 294 289 286 287 289 291 293 293 294 292 289 286 288 292 295 299 304 305 304 313 309 308
310 311 311 311 311 310 305 304 305 298 289 288 291 289 290 286 286 287 290 295 297 297 293 288 281 281 284 284 290 295 293 293 289 288 284 284 297 303 310 314 299 316 317 317
310 311 311 311 311 311 306 303 304 299 290 293 292 288 288 291 289 287 289 290 291 296 290 284 281 282 288 283 283 287 287 288 285 286 286 290 299 306 315 300 303 318 320 321
310 310 311 311 312 312 308 302 303 300 293 293 295 295 291 291 290 286 290 289 290 289 284 284 285 284 287 286 288 287 287 286 286 287 285 282 302 303 299 311 318 318 320 323
311 310 311 312 312 312 311 302 302 303 296 294 300 299 300 298 297 292 291 290 290 292 288 287 287 286 289 287 282 294 286 291 290 290 290 300 304 306 311 316 315 318 322 324
311 311 310 312 312 312 311 303 301 300 295 293 294 293 299 302 301 301 289 292 294 293 297 292 290 285 290 284 286 290 294 298 293 294 296 299 301 307 309 319 320 323 324 325
311 311 311 311 312 312 311 305 303 300 295 288 292 300 297 302 301 300 299 297 298 297 295 289 288 287 294 288 291 291 293 296 294 293 297 299 302 305 310 314 319 322 322 321
311 311 311 312 312 312 311 308 303 303 295 289 290 298 300 300 299 298 298 297 295 293 290 289 288 291 291 292 291 287 294 293 291 289 299 300 303 308 314 317 317 322 319 321
310 310 311 311 311 310 304 297 302 305 302 292 287 298 297 299 297 297 296 296 295 293 290 289 292 296 291 287 287 294 297 298 299 297 301 302 306 309 314 317 321 319 318 325
310 310 310 310 310 307 300 295 302 305 304 293 288 289 298 299 298 295 294 295 293 292 291 289 290 291 292 286 284 292 296 298 300 302 302 300 303 306 317 318 321 318 321 325
310 310 310 310 309 307 302 305 305 305 298 294 287 288 293 301 297 297 297 292 292 292 290 291 290 292 289 284 290 293 296 298 297 298 301 302 307 316 318 316 318 318 320 323
310 309 310 308 305 301 303 310 307 305 297 289 289 287 287 299 298 301 298 294 289 295 288 292 294 287 285 290 293 296 303 299 298 300 302 303 308 312 313 315 315 318 321 324
308 307 302 300 303 310 308 301 295 294 295 292 287 291 288 295 296 296 296 297 291 287 291 297 287 286 296 300 306 309 306 305 305 303 306 309 308 312 313 313 314 316 317 320
306 301 299 304 309 305 301 291 289 288 286 287 288 290 288 298 291 293 295 291 289 285 291 289 286 286 294 300 301 309 312 312 312 312 312 312 312 312 314 317 318 319 320 318
304 303 305 305 302 300 296 294 293 290 290 293 291 294 291 294 299 295 296 290 291 288 297 290 285 293 298 299 300 301 306 308 308 308 309 311 314 315 315 315 315 316 319 320
306 302 302 301 301 290 290 287 291 293 300 302 301 300 299 300 302 297 297 293 291 299 289 285 290 297 299 299 301 301 302 302 304 307 306 305 306 308 312 314 316 317 315 314
303 299 290 296 292 293 293 294 295 300 302 301 303 302 300 301 299 299 293 295 295 290 285 286 293 298 300 299 301 302 301 302 301 302 302 303 303 303 303 305 307 308 307 308
302 300 291 296 300 300 300 301 299 300 301 302 303 302 301 299 298 297 293 292 286 287 289 295 300 302 299 298 298 299 300 300 301 302 302 302 302 301 301 302 302 305 306 306
305 302 297 300 297 296 297 298 297 301 301 307 304 299 296 295 294 291 289 287 286 290 294 297 299 298 298 297 297 298 299 299 300 301 302 302 302 301 301 301 302 303 304 304
302 299 302 300 299 298 298 299 299 302 301 298 298 291 291 296 291 288 289 287 290 295 296 297 297 297 297 299 298 298 299 300 301 300 301 301 302 302 302 300 301 302 303 303

GFSNW_sfc_thetae_036.txt.gz
Theta_e
313 313 312 311 309 307 306 303 293 305 307 296 296 291 292 293 294 297 296 297 294 296 297 297 298 299 301 304 306 304 309 307 304 305 310 311 310 307 307 301 301 303 303 305
313 313 312 311 309 308 306 298 298 306 304 289 290 292 292 293 293 293 294 294 296 297 296 294 297 299 301 302 304 305 308 304 300 303 307 309 306 308 309 308 308 304 300 304
312 312 311 310 309 308 306 299 292 299 300 299 292 290 290 290 294 293 294 292 296 296 294 297 295 297 299 301 301 304 304 305 304 301 304 307 304 306 308 307 303 304 305 307
312 312 311 311 309 307 306 300 294 295 290 292 292 291 291 289 288 293 294 290 289 289 291 293 293 296 298 300 302 303 303 301 302 306 303 303 306 305 307 306 307 304 307 308
311 312 312 311 309 307 304 296 294 296 294 293 290 290 289 288 289 290 290 289 290 290 288 289 289 293 296 295 300 300 301 299 300 299 302 301 300 304 305 307 308 308 308 309
311 312 312 311 310 306 302 304 303 297 292 291 290 289 289 289 291 292 293 292 291 289 291 295 297 298 298 298 296 297 297 297 297 297 302 300 297 302 304 306 308 308 305 311
311 312 312 312 311 308 307 303 301 293 288 290 289 290 291 290 290 289 293 294 291 295 300 298 299 298 297 297 297 299 296 296 297 295 299 290 304 310 309 306 308 310 310 312
311 312 312 312 311 311 305 305 300 294 288 290 291 291 291 293 292 291 292 294 298 300 296 292 290 291 292 293 296 296 298 296 294 292 293 299 301 303 304 304 306 311 311 313
311 312 312 312 312 311 307 305 305 298 290 290 293 291 292 289 289 291 292 297 301 299 294 291 285 285 288 288 291 297 297 298 294 294 290 290 301 307 309 309 302 314 316 316
311 311 311 312 312 311 308 303 306 298 291 294 295 291 291 294 292 290 292 294 294 297 291 287 286 285 290 286 287 291 291 292 290 290 290 296 304 309 314 300 309 319 320 321
311 311 311 311 312 312 309 304 305 299 292 295 298 298 293 293 292 288 293 292 294 294 289 289 289 287 291 289 292 291 291 289 289 291 289 287 304 303 300 309 313 318 319 319
311 311 311 311 312 312 312 304 305 304 296 296 303 303 303 300 297 294 294 292 292 295 292 293 290 289 291 291 286 296 289 293 292 293 293 303 306 305 310 310 310 312 317 318
311 310 311 311 312 312 311 306 303 300 295 295 298 299 304 306 305 304 291 293 295 294 297 292 292 287 292 288 290 292 296 299 295 295 298 300 303 306 308 309 309 314 316 317
310 310 311 312 312 312 312 306 303 302 296 289 296 304 301 306 304 303 302 298 298 297 298 293 291 290 296 292 294 293 297 299 296 297 300 302 303 305 307 308 309 310 312 317
310 311 311 312 312 311 312 308 305 305 298 291 295 302 304 304 304 301 301 298 296 293 292 290 288 292 291 293 294 293 297 296 293 293 301 301 303 306 308 306 306 313 315 319
310 311 311 311 310 311 308 301 305 309 304 294 291 301 300 302 300 298 298 298 297 296 292 290 292 296 291 287 287 295 298 299 301 299 303 304 306 307 309 309 312 314 316 322
310 311 311 311 310 312 306 301 305 307 306 294 290 294 302 302 300 297 297 298 295 293 289 288 290 291 291 287 284 291 295 298 299 301 301 300 304 304 308 310 312 315 317 322
311 310 311 309 308 307 305 307 306 307 299 297 290 293 298 303 297 296 297 292 292 290 288 289 288 290 288 284 290 294 297 298 297 298 300 300 304 306 309 311 314 317 319 320
310 311 310 311 307 303 305 308 307 307 299 290 290 288 289 301 298 301 296 295 288 293 288 288 291 287 285 287 293 301 308 305 302 303 300 300 301 304 306 307 316 317 316 320
310 310 309 304 304 310 308 302 297 296 295 293 287 291 289 294 296 295 296 297 291 289 292 297 289 288 295 297 301 302 305 306 303 300 299 302 304 304 308 313 316 315 318 321
313 311 307 307 311 304 302 295 292 292 289 291 291 292 290 299 292 293 296 292 291 288 295 294 289 288 294 298 301 304 304 305 305 308 309 311 311 311 312 315 316 317 316 316
310 309 309 310 305 306 300 295 297 294 294 303 295 297 295 297 299 297 300 296 298 291 301 293 286 293 299 299 299 302 305 304 304 305 304 305 306 312 314 315 313 313 314 314
310 306 306 304 302 291 291 289 292 294 303 304 304 302 304 303 304 301 301 297 295 303 294 286 291 299 301 301 300 301 303 304 304 304 305 305 304 304 306 307 311 313 312 314
308 302 291 299 297 298 297 297 298 302 303 305 306 305 305 308 302 299 295 297 298 291 286 286 296 300 301 301 303 303 302 302 302 302 302 302 303 303 303 304 306 307 308 310
305 304 294 298 301 303 303 304 304 306 307 308 308 308 305 303 300 300 295 293 289 289 288 293 298 300 301 300 302 302 303 303 304 304 304 305 303 302 302 304 306 308 305 306
306 304 300 303 301 301 302 302 302 306 307 311 309 302 299 297 297 292 288 288 285 289 294 298 298 298 302 301 303 303 304 304 304 305 305 305 304 304 304 305 305 305 306 306
304 302 305 304 303 302 302 303 303 307 304 301 302 294 292 299 293 291 296 291 294 299 298 299 301 300 301 303 302 302 303 303 304 304 305 305 306 307 306 304 306 305 305 306

GFSNW_sfc_thetae_039.txt.gz
Theta_e
313 313 313 312 310 307 307 306 298 309 310 297 302 293 294 294 295 297 295 296 295 294 295 295 298 300 305 305 308 306 312 309 305 308 312 313 312 309 310 303 304 306 306 307
313 313 313 311 309 308 306 303 302 310 307 292 293 296 294 295 294 294 293 292 295 297 295 292 297 300 305 305 307 307 311 306 303 306 309 312 309 310 311 310 309 306 302 306
314 313 312 311 310 309 307 303 296 301 302 301 295 293 292 291 295 294 295 294 296 294 294 296 296 297 302 304 304 307 308 307 306 303 307 309 306 309 310 310 306 306 307 309
314 313 312 312 310 309 308 302 296 298 293 295 295 295 293 291 290 294 295 293 293 292 290 293 291 296 300 304 304 307 307 304 308 309 310 310 309 308 308 308 309 306 309 310
314 314 313 312 311 309 306 297 295 297 296 296 293 293 292 291 291 292 290 291 291 292 291 291 289 293 296 298 303 303 306 301 307 306 309 308 306 309 309 309 309 310 311 311
313 313 313 312 311 309 304 303 302 298 293 294 291 292 292 291 293 294 295 294 293 291 293 297 299 299 300 299 298 299 301 302 304 301 307 306 301 307 309 310 312 311 308 313
313 313 313 313 312 310 309 303 299 292 290 292 291 292 293 292 294 292 294 296 294 297 301 301 300 300 299 299 299 301 298 300 301 299 303 295 307 314 312 310 312 314 314 316
312 313 313 313 312 311 310 305 298 293 289 292 292 293 293 294 295 294 294 296 298 302 298 293 292 293 294 296 298 299 301 299 297 296 299 303 306 309 310 308 308 314 314 315
312 312 312 313 312 311 309 306 306 297 290 292 296 293 295 293 292 294 296 299 302 301 295 292 287 287 292 292 294 299 299 300 296 298 295 295 305 310 312 313 304 315 316 316
311 311 312 312 312 312 309 307 307 299 291 295 296 292 293 297 295 292 295 297 295 300 290 289 288 287 293 289 290 292 293 295 292 294 294 300 308 312 313 301 310 318 318 319
311 311 312 312 313 312 310 308 308 300 293 295 300 300 295 295 294 292 295 295 296 294 290 290 290 289 292 292 294 294 294 292 292 294 292 291 309 307 305 311 316 316 319 321
311 311 311 312 312 312 312 305 308 306 297 298 305 304 305 303 301 297 297 295 295 297 294 296 294 291 293 292 289 298 291 296 295 296 296 307 309 308 312 312 311 312 314 316
311 311 312 312 312 313 312 308 304 302 296 296 298 300 305 308 305 305 293 296 297 296 299 294 294 290 294 289 291 294 298 302 296 297 301 303 305 308 309 310 310 311 312 314
311 311 312 312 312 312 312 304 305 304 298 291 298 307 303 307 306 305 303 300 300 299 298 295 292 290 297 293 294 295 298 299 298 297 300 303 305 307 308 309 310 310 311 313
311 311 312 312 312 311 314 309 307 308 299 293 297 305 306 306 305 303 303 301 299 297 293 291 289 293 292 294 295 294 299 297 295 295 303 304 305 308 310 309 308 310 310 310
310 311 312 312 311 312 311 303 308 309 306 296 292 304 303 304 303 300 299 300 299 296 292 290 292 296 291 288 290 296 298 300 301 299 305 305 307 309 309 309 310 310 312 314
311 311 312 312 311 312 305 303 307 308 308 296 293 297 302 303 302 299 298 299 296 293 289 288 290 291 292 288 286 294 295 296 297 300 300 298 303 304 309 310 311 311 311 313
311 311 310 309 307 307 307 309 308 308 302 299 290 294 298 303 297 295 297 292 291 291 291 290 289 290 289 285 292 292 299 305 306 301 301 299 303 305 304 309 310 310 309 311
310 311 310 313 311 307 307 308 307 307 300 291 291 289 291 302 298 300 295 293 288 292 287 289 290 286 285 287 293 296 302 303 305 308 307 304 300 300 305 306 307 310 311 313
311 311 310 307 308 310 308 304 302 300 299 298 291 295 292 297 298 297 297 297 294 289 296 297 293 290 298 298 299 301 302 305 307 302 302 301 300 303 305 307 310 309 311 319
313 313 311 312 310 305 304 304 300 300 294 301 297 295 294 302 295 295 300 297 298 293 296 295 291 290 297 301 300 302 303 304 305 306 307 306 307 307 309 310 311 312 313 313
313 314 316 313 309 308 303 301 304 298 300 307 304 305 303 305 304 299 305 301 302 292 300 294 287 294 301 302 302 302 303 303 304 305 305 307 307 308 310 311 311 312 313 312
318 316 310 307 307 296 295 291 295 298 304 306 306 306 309 309 308 306 304 299 297 304 294 287 292 299 302 303 304 305 306 305 305 305 305 305 306 307 306 305 307 307 311 310
312 305 295 302 299 299 300 300 301 306 307 308 307 309 310 308 306 304 297 301 300 292 286 287 296 299 302 304 305 304 304 305 306 304 305 305 305 305 306 306 307 307 306 309
307 307 296 301 305 306 306 307 306 308 310 309 309 307 306 304 300 301 297 295 290 289 288 294 298 302 303 304 303 303 303 304 304 306 305 305 306 306 306 309 308 306 307 307
310 307 304 306 305 304 305 305 304 308 309 310 309 303 300 299 299 294 292 290 288 290 294 300 301 304 304 304 304 303 303 303 304 305 306 306 306 307 307 307 307 307 308 307
305 303 310 308 306 304 304 305 305 309 306 302 304 296 295 299 293 291 295 291 295 300 300 301 305 305 305 304 304 303 303 302 301 303 305 305 307 306 305 305 307 307 307 308

GFSNW_sfc_thetae_042.txt.gz
Theta_e
314 314 314 312 310 308 307 306 300 312 311 298 298 293 296 295 296 298 295 295 293 292 293 292 293 295 301 308 306 304 311 306 302 306 313 313 311 307 309 303 302 305 305 305
314 314 313 312 310 309 306 302 304 312 308 292 293 296 295 296 295 295 294 293 293 294 291 289 294 296 302 304 304 302 306 305 300 303 309 312 308 309 309 310 308 305 302 304
314 314 313 312 311 310 308 303 296 302 302 300 295 293 292 292 296 295 295 294 296 293 291 293 291 292 299 303 304 313 308 304 304 301 306 311 307 307 309 308 304 305 306 308
314 314 313 312 311 310 308 302 297 298 292 294 295 296 294 292 292 295 295 293 292 292 288 289 289 294 296 300 307 306 307 302 306 308 310 311 308 307 308 307 309 305 308 309
314 314 313 313 312 310 305 297 295 296 295 297 294 294 292 292 293 293 291 291 292 293 290 290 289 292 293 294 300 299 305 301 306 305 309 309 308 309 308 309 308 309 310 310
313 313 313 312 312 310 302 305 302 295 292 294 292 292 292 292 294 295 295 293 293 292 293 296 296 297 297 297 296 297 299 300 301 299 307 307 304 309 309 310 311 310 308 315
313 313 313 313 312 310 308 307 300 291 288 292 292 294 294 293 294 292 295 295 293 296 302 300 298 298 297 298 298 300 297 298 300 298 303 295 308 315 313 311 312 313 315 317
313 312 313 313 312 311 310 311 298 292 288 292 293 293 294 295 297 295 295 296 299 301 298 292 290 292 293 295 298 298 300 298 296 296 298 304 307 311 311 309 310 315 316 317
312 312 312 312 312 312 312 309 304 296 289 290 296 293 295 292 293 294 295 300 302 300 293 291 286 285 292 290 294 300 299 301 296 297 295 295 307 312 315 315 305 317 316 316
311 311 312 313 313 312 312 308 307 299 291 294 297 293 292 297 295 293 296 297 296 300 291 289 288 288 294 290 290 292 293 294 293 294 294 301 309 311 314 303 306 318 321 320
311 312 312 312 313 313 311 308 309 300 294 295 300 300 297 297 296 291 296 295 295 295 290 291 291 290 292 292 294 294 293 291 291 294 293 293 308 308 305 313 314 314 316 317
311 312 312 312 313 313 312 305 309 307 297 297 304 305 305 304 302 298 297 295 294 295 292 294 292 290 292 292 288 298 291 296 294 296 297 310 310 308 311 311 311 312 312 313
311 312 312 312 313 313 312 309 306 302 297 297 299 301 306 308 307 307 296 297 298 297 299 293 293 291 294 289 291 293 297 301 296 297 301 303 305 308 309 310 309 310 311 311
311 312 312 313 313 312 312 307 306 305 299 292 299 308 305 309 308 306 304 301 301 300 298 294 293 290 296 292 293 293 296 298 296 297 301 303 305 306 307 308 309 309 311 311
311 312 312 312 312 312 315 312 309 308 300 293 297 305 305 306 306 304 304 302 300 298 293 291 289 293 292 295 295 292 298 295 293 293 301 302 304 307 309 308 308 310 310 311
311 312 312 312 311 311 311 302 308 310 307 297 292 304 303 304 303 301 300 299 298 297 291 290 292 296 292 288 288 295 297 298 299 296 301 303 304 306 308 308 310 310 311 313
312 312 312 312 312 313 306 302 307 310 309 298 295 298 303 304 302 299 299 299 295 292 290 288 289 289 292 287 285 293 294 296 296 298 298 297 301 302 306 308 309 310 311 312
312 311 311 309 308 307 306 309 308 309 303 299 292 297 301 304 299 295 298 293 292 292 291 291 288 289 288 284 291 296 298 301 305 307 309 302 304 306 306 307 307 307 308 310
311 312 310 313 311 308 307 308 308 310 304 294 298 292 295 307 301 299 296 294 289 293 289 291 290 285 285 290 295 297 298 300 303 309 308 308 305 303 306 305 306 306 307 309
311 311 310 306 311 310 310 306 302 303 306 304 299 301 297 304 302 299 298 295 295 290 297 298 294 290 297 300 300 301 300 303 307 304 301 301 301 301 303 304 306 307 309 311
313 313 311 313 310 309 306 307 304 306 300 304 302 305 302 307 299 298 303 302 300 295 295 295 291 288 296 301 301 302 303 302 304 306 307 306 307 305 304 305 309 311 312 313
314 316 318 315 309 309 304 301 305 303 302 306 306 309 307 308 307 301 305 301 302 292 300 293 286 294 300 302 302 303 303 303 303 305 305 306 306 307 307 307 309 309 309 310
321 316 311 310 309 296 298 296 300 300 305 306 307 304 306 313 310 309 305 297 296 302 293 288 293 300 303 303 303 302 304 304 304 304 306 305 306 305 305 305 307 307 308 308
313 306 293 303 300 302 303 301 302 306 306 307 309 306 306 308 303 303 296 300 298 291 286 287 296 300 303 304 303 301 300 302 303 305 305 304 303 304 305 306 306 307 307 307
309 308 297 302 306 307 307 307 306 307 309 308 307 308 308 303 300 299 298 294 289 289 289 295 301 303 303 304 304 302 301 300 300 303 304 305 305 303 303 304 306 305 305 307
311 308 304 307 305 304 304 304 303 307 307 309 308 303 299 298 298 294 292 291 287 293 298 302 303 305 305 304 303 305 303 301 300 301 304 306 304 304 304 304 304 305 305 303
307 307 309 308 306 304 304 305 304 308 306 301 303 297 295 300 293 291 295 292 295 298 301 303 306 305 304 305 304 304 304 303 302 301 304 304 307 307 306 304 305 304 305 306

GFSNW_sfc_thetae_045.txt.gz
Theta_e
314 314 314 313 310 309 306 302 295 310 309 296 296 291 294 295 294 296 294 293 291 288 289 287 288 288 292 300 298 292 298 296 294 297 306 311 306 302 300 295 291 293 292 296
314 314 313 312 310 309 304 297 300 309 305 289 291 294 294 295 293 292 293 291 292 292 289 286 290 292 298 299 296 294 298 293 292 295 300 305 304 304 303 299 297 293 292 295
314 313 313 312 311 310 305 300 293 298 300 297 292 291 291 291 297 295 294 292 293 291 288 290 288 289 296 298 297 304 303 295 292 292 296 300 300 304 303 301 296 295 298 297
314 314 313 312 311 310 305 300 294 296 289 290 291 293 292 290 290 295 295 291 291 290 285 288 288 291 292 295 299 298 295 290 297 301 303 305 305 304 304 300 300 298 300 301
314 313 313 312 311 310 303 296 295 295 292 293 291 292 290 290 291 292 290 289 291 290 287 288 286 289 289 290 294 292 293 290 296 298 304 305 304 307 306 305 304 303 303 301
313 313 313 312 311 309 301 305 303 296 292 290 290 290 291 291 293 294 295 294 290 289 291 294 294 295 294 293 292 290 290 291 291 291 302 304 298 305 305 305 306 305 300 304
313 313 313 312 312 311 307 305 300 291 287 289 289 291 293 292 293 291 295 295 292 294 298 297 296 294 293 293 293 294 290 290 291 291 298 290 302 311 311 307 308 307 306 312
312 311 311 312 312 311 307 309 299 292 286 290 291 293 293 294 295 293 294 295 297 299 295 289 287 288 290 292 294 293 295 291 288 289 294 298 304 305 305 304 306 313 313 314
311 312 312 312 313 312 310 309 304 296 289 289 294 292 293 291 291 292 294 300 301 298 292 288 283 282 286 288 290 295 295 295 292 292 291 292 298 305 307 309 299 310 313 317
312 312 312 313 313 312 311 309 305 298 290 293 295 292 292 296 294 291 293 295 294 297 289 285 285 285 292 286 288 288 290 291 289 290 290 296 300 304 311 298 300 308 308 311
312 312 313 313 313 313 311 307 308 300 293 295 299 299 295 296 296 291 294 292 294 292 288 288 287 287 289 289 291 289 290 289 288 289 290 288 303 303 297 305 308 308 307 307
312 312 312 313 313 313 312 305 309 307 297 297 303 303 304 302 301 297 297 294 293 294 289 289 289 287 291 288 284 294 287 291 287 291 291 300 303 302 305 306 304 304 305 305
311 312 313 313 313 313 312 308 305 302 297 297 298 300 305 308 306 306 295 297 297 295 297 292 290 287 290 285 287 289 293 296 290 291 295 297 302 303 304 303 304 305 305 306
311 312 313 313 313 312 312 307 306 305 299 292 297 308 304 308 307 305 304 302 301 299 297 291 291 288 292 287 289 288 292 294 290 290 294 296 301 300 302 303 304 306 308 307
312 312 313 312 312 312 313 310 308 308 301 293 295 302 304 306 305 303 303 300 298 296 291 290 288 291 290 291 291 290 293 290 288 287 293 293 294 298 301 300 301 303 305 306
312 312 313 312 312 312 311 301 306 309 307 298 292 304 303 304 303 301 300 299 297 295 291 289 291 295 290 286 285 292 295 296 295 292 297 297 298 300 301 300 302 303 305 307
312 312 312 312 312 311 305 302 307 310 310 298 295 299 303 305 302 300 299 298 294 293 290 288 288 289 291 285 284 292 295 297 298 300 302 299 299 297 302 304 305 306 307 307
312 311 311 309 308 306 306 308 308 309 303 300 295 298 301 305 300 296 298 294 294 293 291 291 288 289 287 283 289 295 297 299 304 305 307 301 302 303 304 306 306 304 303 304
311 312 311 311 307 308 307 310 308 310 304 298 299 294 295 303 301 299 296 295 290 293 290 291 289 285 285 290 294 296 297 297 300 305 305 304 302 303 306 306 305 303 303 304
311 310 310 307 309 310 310 306 303 303 303 303 298 302 298 304 301 299 297 295 294 292 296 297 292 290 298 298 299 299 301 300 301 299 299 302 301 301 303 304 304 303 304 306
310 311 311 310 311 309 305 305 304 306 297 305 299 303 302 307 299 298 302 298 297 289 294 294 289 289 296 300 298 300 302 303 301 302 303 303 305 304 304 306 307 307 306 305
311 310 319 313 308 307 305 302 306 304 299 308 306 305 307 309 307 299 302 298 299 291 298 291 286 294 299 300 299 299 299 303 302 302 301 302 303 304 304 304 304 305 305 305
318 314 313 310 308 296 298 296 300 299 305 305 307 306 309 307 309 304 302 297 294 301 291 286 293 298 300 301 300 298 299 299 303 303 302 302 302 303 303 302 304 303 302 303
312 310 293 302 302 301 301 299 300 304 303 303 307 308 306 309 304 302 296 299 296 288 285 286 294 299 300 301 302 299 297 298 298 303 302 301 301 301 302 304 303 303 301 302
312 309 294 303 306 305 304 305 304 305 306 306 306 307 305 302 300 299 296 293 288 289 289 294 299 301 301 300 300 300 299 298 297 298 302 302 302 301 301 302 303 303 301 302
313 311 305 307 303 302 303 304 302 306 306 307 308 303 298 296 296 292 291 289 287 292 298 301 302 302 302 302 302 301 301 300 299 298 300 303 303 302 302 303 303 302 302 301
309 306 310 308 306 304 304 305 304 308 304 300 302 295 295 299 292 291 294 292 294 296 301 303 305 302 303 304 303 303 302 301 300 300 302 302 305 303 301 299 300 300 301 302

GFSNW_sfc_thetae_048.txt.gz
Theta_e
313 314 313 312 311 309 303 293 288 302 304 290 288 285 290 295 294 295 292 292 290 286 286 284 285 288 291 297 298 291 294 291 287 294 302 303 308 297 297 293 288 288 289 294
313 314 313 311 310 309 302 291 291 301 298 283 284 288 292 294 293 293 291 290 290 288 284 283 288 290 295 297 296 293 294 291 284 290 292 298 296 303 297 294 292 289 291 295
314 313 313 311 310 310 299 292 286 291 292 289 284 286 288 289 296 294 293 291 289 288 284 287 286 288 294 296 295 299 298 291 287 284 289 294 294 299 299 298 293 292 293 295
313 313 312 311 310 309 299 291 287 289 284 287 288 289 289 289 288 293 294 290 289 287 282 283 285 289 291 293 296 295 293 286 287 289 292 295 296 301 301 296 297 295 297 296
313 313 312 312 311 309 296 289 289 289 287 290 289 289 289 289 291 291 289 289 290 290 283 285 283 287 288 288 291 290 291 284 286 285 296 298 298 304 303 301 301 298 298 298
313 313 313 312 310 308 294 295 296 294 292 290 288 287 289 290 292 294 295 292 290 288 289 291 291 292 292 292 290 288 288 285 283 284 296 300 296 298 303 301 301 300 297 300
311 311 311 312 311 310 304 298 300 291 287 290 290 291 292 292 292 290 294 294 290 294 298 296 292 291 291 292 292 293 288 285 284 284 292 288 297 302 302 303 303 304 308 309
311 312 312 312 312 311 306 305 299 293 287 290 291 292 293 293 293 292 293 295 297 298 292 284 283 284 287 290 292 291 293 289 281 285 290 296 298 299 298 296 298 303 305 313
312 312 312 312 313 312 308 303 305 296 290 289 294 292 293 290 290 291 292 297 297 295 287 284 281 281 286 286 290 293 292 293 286 286 288 288 294 301 304 305 292 302 304 305
311 312 313 313 313 312 309 304 305 298 291 294 295 292 291 295 293 290 292 292 291 293 288 284 284 284 290 285 285 285 286 288 287 288 290 293 297 301 306 292 295 303 303 304
311 312 312 313 313 313 310 306 306 300 293 295 298 299 295 295 295 290 294 289 289 286 284 285 284 285 287 287 289 287 287 286 285 286 288 286 299 300 293 296 301 302 303 303
311 312 312 313 313 313 312 304 309 306 298 298 301 302 303 301 300 296 297 292 290 289 286 286 287 285 288 287 283 291 285 289 287 287 289 298 300 301 303 301 299 299 301 303
311 312 313 313 313 313 312 306 305 302 297 296 298 300 306 307 306 306 294 296 297 292 292 288 288 286 287 283 285 288 291 293 288 286 291 293 296 300 300 300 299 300 301 302
312 313 313 313 313 313 309 304 305 302 296 287 293 306 300 307 303 305 304 301 300 298 292 286 285 285 290 285 286 286 291 292 289 288 290 294 297 298 299 300 301 301 302 301
312 312 313 312 312 312 311 306 303 301 296 287 290 296 298 301 300 300 300 298 297 295 291 288 286 290 288 286 286 288 293 290 287 287 293 293 294 297 300 300 300 301 301 300
312 312 312 312 312 312 309 300 304 304 300 291 287 297 301 302 299 298 296 297 295 294 290 288 290 293 289 284 282 292 293 295 298 297 299 297 298 299 301 302 302 303 303 302
312 312 311 312 311 305 302 298 303 306 302 295 290 293 300 301 297 296 296 296 293 293 290 289 289 290 290 285 283 290 297 298 299 302 304 298 300 300 304 302 304 306 306 305
311 311 310 309 308 306 301 302 307 305 298 295 293 295 298 303 298 294 294 291 293 292 290 291 288 289 287 284 290 296 297 298 299 301 303 301 303 303 303 304 304 304 305 305
311 311 311 306 302 300 301 310 308 303 298 295 296 293 293 301 299 297 293 291 289 293 290 291 291 285 284 288 293 295 299 296 297 301 302 303 303 303 304 303 304 303 302 303
311 306 303 301 302 312 308 301 299 300 296 295 293 299 296 302 299 297 295 294 293 290 291 294 290 290 296 297 297 297 300 300 300 297 296 299 300 300 301 302 302 301 302 303
303 302 302 302 311 302 301 299 293 293 294 296 295 299 298 304 297 296 299 295 292 285 288 288 289 288 295 299 297 297 299 303 301 301 301 301 301 300 299 300 301 301 301 302
306 304 307 304 300 299 296 294 296 294 292 298 297 298 301 300 300 296 299 294 293 285 293 287 285 293 297 296 298 297 296 301 301 302 301 301 302 302 301 300 300 300 300 301
307 305 303 302 299 290 293 290 291 291 295 295 299 298 300 301 300 297 296 291 290 293 286 285 290 294 296 296 296 297 296 298 302 301 301 301 301 302 300 299 300 300 300 301
303 304 289 294 293 295 294 292 292 296 295 296 296 302 298 299 297 294 292 291 290 284 283 284 289 293 295 296 297 296 295 295 297 302 300 300 300 299 300 300 299 298 297 299
305 301 291 298 299 297 297 297 296 297 297 296 296 300 295 293 292 291 291 288 284 286 284 287 292 294 294 295 296 296 296 295 294 295 300 301 300 300 300 300 300 299 298 298
307 301 296 298 296 295 295 296 294 297 297 298 297 293 291 289 288 287 285 284 277 285 289 292 293 294 294 294 296 297 297 293 294 295 297 300 300 300 300 301 301 301 300 299
302 302 301 299 297 296 296 296 296 298 295 291 292 289 288 290 287 286 288 285 286 288 291 294 295 296 295 296 296 296 296 294 293 294 297 296 301 297 295 293 294 295 300 300

GFSNW_sfc_thetae_051.txt.gz
Theta_e
313 314 313 312 310 308 301 290 287 300 298 288 286 284 288 294 292 294 290 289 287 284 284 283 284 286 289 296 296 290 294 291 287 289 299 300 296 298 295 296 290 287 293 296
313 313 312 311 309 309 302 291 288 299 296 282 283 288 290 293 292 291 291 289 289 288 283 281 287 289 295 296 294 291 294 289 282 287 291 296 293 296 301 295 291 290 293 295
313 313 312 311 310 309 296 291 285 289 289 288 283 285 287 289 295 293 292 291 290 286 283 285 284 288 294 295 294 300 297 290 286 282 286 290 288 291 293 293 294 290 293 297
313 313 312 311 310 309 297 289 285 287 282 284 285 286 287 288 288 294 293 290 291 288 281 282 283 287 289 293 296 295 293 285 288 287 289 290 289 289 291 292 295 294 296 293
312 311 312 311 310 307 294 289 288 289 286 287 288 287 286 287 290 290 289 289 291 290 284 284 281 284 284 286 290 290 291 284 285 285 289 289 288 291 294 295 298 295 294 295
311 311 311 312 310 306 295 294 295 294 292 290 289 289 290 289 292 292 294 292 290 288 289 291 289 288 288 288 286 287 288 285 284 280 288 292 289 295 297 298 298 298 293 297
311 312 312 312 311 309 304 301 300 292 287 290 290 291 292 291 293 290 293 294 288 293 297 295 291 288 289 288 289 291 287 287 286 280 284 287 294 300 300 297 297 299 302 307
311 312 312 312 313 312 305 305 300 293 287 291 291 293 293 293 294 291 292 294 295 296 292 284 280 280 282 284 289 290 291 288 285 280 285 294 296 297 295 294 293 299 299 302
312 312 312 313 313 312 308 305 306 297 290 290 294 292 293 290 290 291 293 296 297 294 289 284 280 278 285 284 286 291 291 290 286 285 283 288 293 298 301 301 289 298 299 299
312 312 313 313 313 312 308 305 305 298 291 294 295 292 292 295 291 288 292 293 291 292 287 283 282 281 286 284 284 284 286 286 283 285 284 292 297 298 302 288 289 298 299 299
311 312 312 313 313 313 309 305 306 301 294 295 298 299 296 296 294 288 293 291 289 288 284 283 283 284 286 286 287 286 286 285 285 287 288 287 299 299 291 293 297 297 297 297
311 312 313 313 313 313 311 304 308 306 299 298 298 302 303 302 301 297 296 292 292 290 286 286 287 286 286 285 282 291 285 287 285 286 288 297 297 300 298 299 297 297 297 298
312 312 313 313 313 313 311 305 305 303 297 293 293 296 303 304 304 306 295 295 293 291 294 289 288 285 287 283 284 288 290 293 288 287 291 292 296 298 300 299 299 301 300 300
312 313 313 312 313 313 308 301 305 300 293 286 292 301 299 303 301 303 304 300 299 294 292 287 286 286 290 287 288 289 290 292 288 289 292 294 297 299 299 300 301 303 304 302
311 312 312 312 312 313 307 301 300 299 295 287 289 294 297 300 300 299 300 297 295 293 290 288 286 290 289 288 288 288 291 288 286 287 295 295 295 299 301 299 300 302 303 302
312 312 312 313 312 312 306 299 301 302 299 291 290 297 297 298 298 297 295 296 294 292 290 288 290 293 290 285 285 292 296 298 298 296 301 302 301 301 302 300 302 305 304 304
312 311 311 311 311 304 302 297 301 304 300 291 290 295 298 301 296 293 293 294 291 292 291 289 289 289 290 286 284 292 297 298 299 301 302 300 303 301 303 304 305 305 306 306
311 310 310 308 309 306 301 301 307 304 296 293 290 296 299 300 295 292 291 290 290 291 290 292 290 289 288 282 289 294 298 298 298 299 302 300 302 303 302 304 305 303 304 306
311 311 311 305 301 298 301 309 307 301 297 295 296 292 293 301 298 292 292 290 289 291 289 292 292 286 285 289 290 293 296 297 297 299 300 300 299 299 300 300 299 299 300 302
310 305 302 299 301 311 307 299 299 300 294 292 293 294 296 298 298 297 295 291 289 289 292 295 291 289 294 295 296 294 296 300 300 296 296 297 297 298 298 298 299 299 299 300
302 300 300 301 309 301 301 299 294 294 293 295 292 294 293 303 296 296 298 294 291 284 288 288 288 287 292 295 295 295 295 299 300 300 300 300 299 298 298 297 298 298 299 299
304 303 305 301 299 296 294 292 293 292 290 295 295 296 296 298 300 297 296 293 293 284 291 288 283 287 293 294 295 295 294 298 300 300 298 299 298 297 297 297 297 297 298 299
304 303 300 301 296 288 290 287 289 289 292 293 295 295 298 300 297 295 294 290 286 290 284 284 287 290 293 293 294 295 295 296 298 298 299 299 298 299 297 296 297 298 297 298
302 302 289 293 292 296 296 291 290 294 293 293 292 295 296 296 297 292 288 288 288 282 275 279 287 290 292 293 294 294 294 293 293 298 298 298 298 298 298 298 298 297 297 298
303 299 289 297 298 296 295 295 293 294 294 293 295 294 292 289 289 288 288 285 279 280 279 285 290 292 293 293 293 293 294 294 294 295 298 298 298 298 297 298 299 299 299 298
305 301 295 295 293 293 294 294 292 294 294 294 293 290 289 287 287 285 284 283 276 282 286 290 291 294 293 293 294 294 294 293 291 293 294 298 298 297 297 299 299 299 299 298
300 298 299 296 296 294 294 294 294 294 292 289 290 287 287 288 286 284 286 283 284 286 288 288 291 292 293 294 294 294 294 292 291 292 292 294 295 293 292 291 292 296 299 299

GFSNW_sfc_thetae_054.txt.gz
Theta_e
313 313 313 312 310 308 301 289 286 300 297 286 283 281 286 293 290 293 290 288 286 284 284 282 283 284 288 297 294 288 290 290 285 287 296 298 295 292 294 293 290 291 289 293
313 313 312 311 309 308 298 289 288 298 294 281 280 285 288 291 290 289 289 288 288 286 283 281 286 287 295 296 293 289 290 289 279 285 288 294 292 291 289 288 291 292 292 293
312 312 312 310 309 309 295 289 284 288 288 285 281 284 284 286 294 291 292 289 290 287 284 285 283 286 293 294 293 299 295 284 284 281 284 288 287 290 291 287 284 292 295 297
311 312 312 311 309 307 296 288 284 286 282 284 289 287 285 286 287 292 292 289 290 288 283 284 283 286 288 293 296 294 288 281 283 287 289 289 288 289 290 287 289 287 294 296
311 312 312 312 310 306 293 288 287 287 285 290 289 289 285 287 289 289 288 288 291 290 287 287 284 286 284 286 289 288 287 282 287 284 288 288 287 291 292 292 292 292 293 293
311 312 312 312 310 304 293 295 298 295 292 291 289 289 290 290 291 292 293 293 290 289 289 291 291 290 287 286 286 285 286 285 285 279 286 287 286 291 295 295 294 296 292 297
312 312 312 313 311 308 302 301 300 293 288 290 290 292 293 292 293 290 293 294 290 293 295 294 291 290 288 288 287 287 284 284 286 281 286 280 292 300 299 295 295 296 297 300
312 312 312 312 313 311 305 304 300 294 288 292 292 293 293 294 294 292 292 294 294 296 292 285 279 278 280 283 286 286 287 286 284 280 282 288 296 296 294 292 292 296 295 298
311 312 312 313 312 312 307 305 305 297 291 290 295 292 293 290 289 290 292 296 295 292 289 287 280 277 280 279 282 287 289 289 284 285 282 287 292 295 300 299 289 297 296 295
312 312 313 313 313 312 306 305 305 299 292 295 295 292 292 295 290 287 291 293 291 290 286 282 281 280 285 281 280 283 284 285 281 282 284 288 294 296 301 290 289 296 296 296
312 312 313 313 313 313 305 301 306 302 295 294 295 299 296 296 294 287 292 291 287 288 285 284 283 283 285 285 286 285 285 283 284 286 285 285 295 297 291 294 296 297 297 297
312 312 313 314 313 313 309 302 308 306 299 296 296 298 302 301 300 297 295 292 291 292 287 287 286 285 285 286 282 290 285 287 284 286 286 294 296 295 298 298 296 297 297 299
312 313 313 313 313 313 308 303 305 303 296 292 293 295 298 300 298 303 294 296 295 291 294 290 288 285 287 283 285 288 290 293 287 288 292 294 297 299 300 300 298 300 302 301
311 313 313 313 313 313 308 300 302 296 291 287 292 299 296 301 300 300 300 298 295 291 290 285 285 286 290 285 286 288 290 291 287 288 293 296 299 301 301 301 302 302 303 303
312 313 313 312 313 312 305 300 299 297 296 291 293 294 297 296 297 298 299 296 294 292 289 287 285 289 288 289 289 287 294 289 287 287 295 296 297 302 303 301 301 302 303 302
312 312 313 312 312 311 306 297 299 300 297 290 291 298 294 297 297 297 295 295 294 292 289 288 290 293 290 285 285 292 295 297 298 296 301 301 302 303 303 303 304 305 305 305
311 311 311 311 311 304 301 297 300 303 298 290 288 296 299 299 293 292 292 293 292 292 292 290 289 290 290 286 284 292 296 297 298 300 300 297 299 297 300 300 303 306 306 306
311 310 309 309 309 305 299 300 306 302 295 292 288 294 299 301 292 290 290 289 289 291 291 292 290 291 289 283 290 294 297 297 298 299 300 299 300 300 300 300 300 299 299 300
311 310 310 304 300 297 300 309 306 299 296 293 295 292 290 298 297 293 290 289 288 289 290 292 292 286 285 289 293 293 296 297 297 299 299 299 298 298 298 298 297 296 297 298
310 304 301 298 300 309 306 298 298 300 297 293 292 294 292 295 296 297 295 289 287 288 292 295 291 289 294 295 295 295 296 299 299 295 294 296 295 296 296 296 297 297 297 298
301 299 300 301 308 300 302 298 296 295 294 295 293 295 291 300 297 294 298 292 290 283 289 287 284 280 290 295 294 295 295 299 300 299 298 297 296 296 296 296 297 297 297 297
303 302 303 300 298 296 293 291 291 290 290 293 293 294 295 295 300 297 294 294 291 283 290 284 277 286 292 293 294 295 294 297 299 300 298 298 297 297 295 295 295 297 298 298
303 301 298 300 295 287 290 286 288 288 291 292 292 292 296 300 295 294 292 289 285 288 283 283 285 289 292 293 294 294 295 295 299 298 299 299 298 298 297 295 297 297 298 298
300 300 289 292 290 295 292 290 289 293 292 292 290 291 294 294 294 290 286 287 287 281 273 277 286 289 292 293 294 294 294 294 294 297 299 298 298 297 298 297 297 296 296 297
300 298 287 292 296 294 294 294 292 293 292 291 293 291 290 288 288 287 286 284 279 279 279 284 289 291 292 293 293 293 294 294 292 293 297 298 298 298 297 298 298 297 296 296
302 300 295 296 292 292 292 292 292 292 291 292 291 289 288 286 286 285 285 283 277 283 285 289 289 292 293 293 293 294 294 293 291 292 294 297 298 297 296 296 296 298 297 295
301 297 297 299 294 294 293 293 293 292 291 289 288 287 286 287 285 285 286 284 286 287 287 287 288 290 292 293 293 294 293 292 292 291 293 295 295 294 291 290 291 292 296 297